| time (UTC) | temp F | wind direction | speed knots | gust knots | rain 1hr in | rain 24hr in | rain mn in | humidity % | barometer mb |
| 20260503221026 | 80 | 80 | 5.2 | 9.6 | 0.00 | 0.00 | 0.00 | 39 | 1016.7 |
| 20260503220926 | 80 | 106 | 6.1 | 9.6 | 0.00 | 0.00 | 0.00 | 40 | 1016.6 |
| 20260503220826 | 80 | 109 | 4.3 | 9.6 | 0.00 | 0.00 | 0.00 | 40 | 1016.6 |
| 20260503220723 | 80 | 94 | 0.9 | 4.3 | 0.00 | 0.00 | 0.00 | 39 | 1016.6 |
| 20260503220622 | 80 | 58 | 0.9 | 5.2 | 0.00 | 0.00 | 0.00 | 38 | 1016.5 |
| 20260503220521 | 80 | 58 | 0.9 | 6.1 | 0.00 | 0.00 | 0.00 | 38 | 1016.5 |
| 20260503220418 | 80 | 20 | 0.9 | 6.1 | 0.00 | 0.00 | 0.00 | 38 | 1016.6 |
| 20260503220318 | 80 | 20 | 1.7 | 6.1 | 0.00 | 0.00 | 0.00 | 38 | 1016.6 |
| 20260503220216 | 80 | 62 | 1.7 | 6.1 | 0.00 | 0.00 | 0.00 | 38 | 1016.6 |
| 20260503220110 | 81 | 75 | 1.7 | 7.8 | 0.00 | 0.00 | 0.00 | 38 | 1016.6 |
| 20260503220012 | 81 | 72 | 1.7 | 8.7 | 0.00 | 0.00 | 0.00 | 38 | 1016.7 |
| 20260503215910 | 81 | 96 | 2.6 | 8.7 | 0.00 | 0.00 | 0.00 | 39 | 1016.7 |
| 20260503215810 | 80 | 200 | 2.6 | 8.7 | 0.00 | 0.00 | 0.00 | 39 | 1016.6 |
| 20260503215709 | 81 | 147 | 3.5 | 8.7 | 0.00 | 0.00 | 0.00 | 39 | 1016.6 |
| 20260503215610 | 80 | 172 | 3.5 | 8.7 | 0.00 | 0.00 | 0.00 | 39 | 1016.6 |
| 20260503215510 | 80 | 125 | 3.5 | 8.7 | 0.00 | 0.00 | 0.00 | 39 | 1016.6 |
| 20260503215410 | 81 | 125 | 2.6 | 8.7 | 0.00 | 0.00 | 0.00 | 39 | 1016.5 |
| 20260503215309 | 81 | 114 | 3.5 | 8.7 | 0.00 | 0.00 | 0.00 | 39 | 1016.6 |
| 20260503215209 | 81 | 178 | 4.3 | 8.7 | 0.00 | 0.00 | 0.00 | 39 | 1016.6 |
| 20260503215112 | 80 | 203 | 2.6 | 8.7 | 0.00 | 0.00 | 0.00 | 39 | 1016.5 |
| 20260503215010 | 80 | 124 | 1.7 | 6.1 | 0.00 | 0.00 | 0.00 | 39 | 1016.6 |
| 20260503214908 | 79 | 121 | 1.7 | 6.1 | 0.00 | 0.00 | 0.00 | 39 | 1016.6 |
| 20260503214811 | 79 | 39 | 1.7 | 6.1 | 0.00 | 0.00 | 0.00 | 39 | 1016.6 |
| 20260503214709 | 79 | 39 | 2.6 | 6.1 | 0.00 | 0.00 | 0.00 | 39 | 1016.6 |
| 20260503214609 | 79 | 32 | 2.6 | 6.1 | 0.00 | 0.00 | 0.00 | 40 | 1016.6 |
| 20260503214510 | 79 | 51 | 3.5 | 6.1 | 0.00 | 0.00 | 0.00 | 39 | 1016.6 |
| 20260503214410 | 79 | 51 | 4.3 | 6.1 | 0.00 | 0.00 | 0.00 | 40 | 1016.7 |
| 20260503214308 | 79 | 42 | 4.3 | 8.7 | 0.00 | 0.00 | 0.00 | 40 | 1016.7 |
| 20260503214209 | 78 | 96 | 3.5 | 9.6 | 0.00 | 0.00 | 0.00 | 40 | 1016.8 |
| 20260503214110 | 78 | 52 | 4.3 | 9.6 | 0.00 | 0.00 | 0.00 | 41 | 1016.8 |
| 20260503214010 | 78 | 44 | 3.5 | 9.6 | 0.00 | 0.00 | 0.00 | 40 | 1016.8 |
| 20260503213910 | 78 | 35 | 0.9 | 9.6 | 0.00 | 0.00 | 0.00 | 39 | 1016.9 |
| 20260503213810 | 78 | 14 | 1.7 | 9.6 | 0.00 | 0.00 | 0.00 | 39 | 1016.9 |
| 20260503213711 | 78 | 14 | 3.5 | 9.6 | 0.00 | 0.00 | 0.00 | 39 | 1016.9 |
| 20260503213608 | 78 | 16 | 4.3 | 9.6 | 0.00 | 0.00 | 0.00 | 39 | 1016.9 |
| 20260503213508 | 79 | 45 | 5.2 | 9.6 | 0.00 | 0.00 | 0.00 | 40 | 1017.0 |
| 20260503213411 | 79 | 65 | 7.0 | 9.6 | 0.00 | 0.00 | 0.00 | 40 | 1017.0 |
| 20260503213309 | 79 | 54 | 6.1 | 9.6 | 0.00 | 0.00 | 0.00 | 41 | 1017.0 |
| 20260503213209 | 79 | 45 | 5.2 | 8.7 | 0.00 | 0.00 | 0.00 | 40 | 1017.1 |
| 20260503213108 | 79 | 44 | 5.2 | 7.8 | 0.00 | 0.00 | 0.00 | 40 | 1017.1 |
| 20260503213010 | 79 | 86 | 4.3 | 7.8 | 0.00 | 0.00 | 0.00 | 40 | 1017.2 |
| 20260503212908 | 79 | 58 | 4.3 | 7.8 | 0.00 | 0.00 | 0.00 | 40 | 1017.2 |
| 20260503212808 | 80 | 52 | 4.3 | 7.8 | 0.00 | 0.00 | 0.00 | 39 | 1017.1 |
| 20260503212710 | 80 | 56 | 4.3 | 7.8 | 0.00 | 0.00 | 0.00 | 39 | 1017.1 |
| 20260503212609 | 80 | 55 | 3.5 | 7.8 | 0.00 | 0.00 | 0.00 | 39 | 1017.1 |
| 20260503212510 | 80 | 45 | 4.3 | 7.8 | 0.00 | 0.00 | 0.00 | 38 | 1017.1 |
| 20260503212409 | 80 | 32 | 3.5 | 8.7 | 0.00 | 0.00 | 0.00 | 38 | 1017.1 |
| 20260503212310 | 80 | 41 | 3.5 | 11.3 | 0.00 | 0.00 | 0.00 | 40 | 1017.2 |
| 20260503212209 | 80 | 85 | 5.2 | 11.3 | 0.00 | 0.00 | 0.00 | 39 | 1017.2 |
| 20260503212108 | 80 | 97 | 4.3 | 11.3 | 0.00 | 0.00 | 0.00 | 40 | 1017.2 |
| 20260503212009 | 80 | 89 | 2.6 | 11.3 | 0.00 | 0.00 | 0.00 | 39 | 1017.2 |
| 20260503211908 | 80 | 93 | 3.5 | 11.3 | 0.00 | 0.00 | 0.00 | 39 | 1017.2 |
| 20260503211808 | 80 | 72 | 3.5 | 11.3 | 0.00 | 0.00 | 0.00 | 39 | 1017.3 |
| 20260503211710 | 80 | 73 | 4.3 | 11.3 | 0.00 | 0.00 | 0.00 | 39 | 1017.2 |
| 20260503211609 | 80 | 80 | 5.2 | 11.3 | 0.00 | 0.00 | 0.00 | 38 | 1017.3 |
| 20260503211508 | 80 | 90 | 7.8 | 11.3 | 0.00 | 0.00 | 0.00 | 38 | 1017.3 |
| 20260503211408 | 80 | 89 | 7.8 | 11.3 | 0.00 | 0.00 | 0.00 | 39 | 1017.3 |
| 20260503211310 | 80 | 93 | 6.1 | 11.3 | 0.00 | 0.00 | 0.00 | 39 | 1017.3 |
| 20260503211208 | 80 | 56 | 6.1 | 11.3 | 0.00 | 0.00 | 0.00 | 39 | 1017.2 |
| 20260503211108 | 80 | 39 | 6.1 | 11.3 | 0.00 | 0.00 | 0.00 | 39 | 1017.3 |
| 20260503211009 | 80 | 103 | 6.1 | 9.6 | 0.00 | 0.00 | 0.00 | 39 | 1017.3 |
| 20260503210909 | 80 | 89 | 3.5 | 9.6 | 0.00 | 0.00 | 0.00 | 40 | 1017.2 |
| 20260503210809 | 80 | 62 | 2.6 | 9.6 | 0.00 | 0.00 | 0.00 | 40 | 1017.3 |
| 20260503210707 | 80 | 118 | 2.6 | 9.6 | 0.00 | 0.00 | 0.00 | 39 | 1017.3 |
| 20260503210606 | 80 | 61 | 2.6 | 9.6 | 0.00 | 0.00 | 0.00 | 39 | 1017.4 |
| 20260503210503 | 80 | 82 | 3.5 | 9.6 | 0.00 | 0.00 | 0.00 | 39 | 1017.3 |
| 20260503210403 | 80 | 103 | 5.2 | 9.6 | 0.00 | 0.00 | 0.00 | 39 | 1017.3 |
| 20260503210304 | 80 | 109 | 6.1 | 9.6 | 0.00 | 0.00 | 0.00 | 37 | 1017.4 |
| 20260503210204 | 81 | 110 | 6.1 | 9.6 | 0.00 | 0.00 | 0.00 | 38 | 1017.4 |
| 20260503210103 | 81 | 83 | 5.2 | 6.1 | 0.00 | 0.00 | 0.00 | 38 | 1017.4 |
| 20260503210003 | 81 | 90 | 3.5 | 5.2 | 0.00 | 0.00 | 0.00 | 37 | 1017.4 |
| 20260503205903 | 81 | 54 | 1.7 | 4.3 | 0.00 | 0.00 | 0.00 | 38 | 1017.4 |
| 20260503205802 | 81 | 69 | 1.7 | 7.8 | 0.00 | 0.00 | 0.00 | 37 | 1017.4 |
| 20260503205703 | 81 | 32 | 2.6 | 7.8 | 0.00 | 0.00 | 0.00 | 37 | 1017.5 |
| 20260503205603 | 81 | 49 | 1.7 | 7.8 | 0.00 | 0.00 | 0.00 | 37 | 1017.3 |
| 20260503205504 | 81 | 71 | 0.0 | 7.8 | 0.00 | 0.00 | 0.00 | 37 | 1017.4 |
| 20260503205402 | 80 | 275 | 0.9 | 7.8 | 0.00 | 0.00 | 0.00 | 37 | 1017.4 |
| 20260503205304 | 81 | 230 | 1.7 | 7.8 | 0.00 | 0.00 | 0.00 | 36 | 1017.5 |
| 20260503205204 | 81 | 123 | 1.7 | 7.8 | 0.00 | 0.00 | 0.00 | 36 | 1017.5 |
| 20260503205102 | 82 | 162 | 2.6 | 7.8 | 0.00 | 0.00 | 0.00 | 36 | 1017.5 |
| 20260503205005 | 82 | 195 | 3.5 | 7.8 | 0.00 | 0.00 | 0.00 | 36 | 1017.5 |
| 20260503204902 | 82 | 202 | 2.6 | 7.8 | 0.00 | 0.00 | 0.00 | 36 | 1017.6 |
| 20260503204803 | 82 | 176 | 0.9 | 6.1 | 0.00 | 0.00 | 0.00 | 37 | 1017.6 |
| 20260503204702 | 82 | 104 | 0.0 | 6.1 | 0.00 | 0.00 | 0.00 | 38 | 1017.7 |
| 20260503204602 | 81 | 183 | 0.0 | 6.1 | 0.00 | 0.00 | 0.00 | 38 | 1017.6 |
| 20260503204504 | 80 | 185 | 0.9 | 6.1 | 0.00 | 0.00 | 0.00 | 37 | 1017.6 |
| 20260503204402 | 80 | 185 | 2.6 | 6.1 | 0.00 | 0.00 | 0.00 | 37 | 1017.7 |
| 20260503204302 | 80 | 281 | 3.5 | 7.8 | 0.00 | 0.00 | 0.00 | 38 | 1017.7 |
| 20260503204204 | 80 | 244 | 3.5 | 8.7 | 0.00 | 0.00 | 0.00 | 38 | 1017.6 |
| 20260503204103 | 80 | 244 | 3.5 | 11.3 | 0.00 | 0.00 | 0.00 | 38 | 1017.7 |
| 20260503204003 | 81 | 216 | 3.5 | 11.3 | 0.00 | 0.00 | 0.00 | 37 | 1017.7 |
| 20260503203901 | 81 | 182 | 3.5 | 11.3 | 0.00 | 0.00 | 0.00 | 38 | 1017.7 |
| 20260503203802 | 81 | 188 | 2.6 | 11.3 | 0.00 | 0.00 | 0.00 | 38 | 1017.8 |
| 20260503203702 | 81 | 223 | 2.6 | 11.3 | 0.00 | 0.00 | 0.00 | 38 | 1017.8 |
| 20260503203602 | 81 | 127 | 3.5 | 11.3 | 0.00 | 0.00 | 0.00 | 38 | 1017.8 |
| 20260503203504 | 81 | 223 | 4.3 | 11.3 | 0.00 | 0.00 | 0.00 | 38 | 1017.9 |
| 20260503203403 | 81 | 133 | 5.2 | 11.3 | 0.00 | 0.00 | 0.00 | 37 | 1017.9 |
| 20260503203302 | 81 | 195 | 5.2 | 11.3 | 0.00 | 0.00 | 0.00 | 38 | 1017.8 |
| 20260503203203 | 81 | 134 | 3.5 | 11.3 | 0.00 | 0.00 | 0.00 | 39 | 1017.8 |
| 20260503203103 | 80 | 117 | 2.6 | 9.6 | 0.00 | 0.00 | 0.00 | 39 | 1017.8 |
| 20260503203002 | 81 | 109 | 2.6 | 9.6 | 0.00 | 0.00 | 0.00 | 37 | 1017.9 |
| 20260503202902 | 81 | 127 | 3.5 | 10.4 | 0.00 | 0.00 | 0.00 | 39 | 1017.9 |
| 20260503202803 | 81 | 133 | 3.5 | 10.4 | 0.00 | 0.00 | 0.00 | 38 | 1017.9 |
| 20260503202702 | 82 | 94 | 2.6 | 10.4 | 0.00 | 0.00 | 0.00 | 39 | 1018.0 |
| 20260503202602 | 81 | 92 | 3.5 | 10.4 | 0.00 | 0.00 | 0.00 | 38 | 1018.0 |
| 20260503202503 | 81 | 58 | 5.2 | 10.4 | 0.00 | 0.00 | 0.00 | 38 | 1017.9 |
| 20260503202402 | 80 | 51 | 7.0 | 10.4 | 0.00 | 0.00 | 0.00 | 38 | 1018.0 |
| 20260503202304 | 80 | 73 | 6.1 | 10.4 | 0.00 | 0.00 | 0.00 | 39 | 1018.0 |
| 20260503202202 | 81 | 111 | 6.1 | 10.4 | 0.00 | 0.00 | 0.00 | 38 | 1018.0 |
| 20260503202103 | 81 | 102 | 7.0 | 10.4 | 0.00 | 0.00 | 0.00 | 38 | 1018.0 |
| 20260503202001 | 81 | 123 | 3.5 | 10.4 | 0.00 | 0.00 | 0.00 | 39 | 1018.0 |
| 20260503201902 | 81 | 78 | 0.9 | 5.2 | 0.00 | 0.00 | 0.00 | 37 | 1018.0 |
| 20260503201803 | 80 | 145 | 0.9 | 7.8 | 0.00 | 0.00 | 0.00 | 37 | 1018.0 |
| 20260503201703 | 80 | 326 | 1.7 | 7.8 | 0.00 | 0.00 | 0.00 | 37 | 1018.0 |
| 20260503201603 | 80 | 300 | 0.9 | 7.8 | 0.00 | 0.00 | 0.00 | 37 | 1018.1 |
| 20260503201504 | 80 | 72 | 0.9 | 7.8 | 0.00 | 0.00 | 0.00 | 37 | 1018.1 |
| 20260503201402 | 80 | 103 | 2.6 | 7.8 | 0.00 | 0.00 | 0.00 | 38 | 1018.2 |
| 20260503201302 | 80 | 103 | 3.5 | 8.7 | 0.00 | 0.00 | 0.00 | 39 | 1018.2 |
| 20260503201202 | 80 | 113 | 1.7 | 8.7 | 0.00 | 0.00 | 0.00 | 38 | 1018.2 |
| 20260503201103 | 80 | 79 | 1.7 | 8.7 | 0.00 | 0.00 | 0.00 | 38 | 1018.3 |
| 20260503201003 | 80 | 97 | 3.5 | 8.7 | 0.00 | 0.00 | 0.00 | 38 | 1018.3 |
| 20260503200902 | 80 | 96 | 4.3 | 9.6 | 0.00 | 0.00 | 0.00 | 37 | 1018.3 |
| 20260503200803 | 80 | 94 | 1.7 | 9.6 | 0.00 | 0.00 | 0.00 | 38 | 1018.3 |
| 20260503200702 | 80 | 103 | 0.9 | 11.3 | 0.00 | 0.00 | 0.00 | 38 | 1018.3 |
| 20260503200602 | 80 | 244 | 2.6 | 11.3 | 0.00 | 0.00 | 0.00 | 39 | 1018.4 |
| 20260503200502 | 79 | 103 | 4.3 | 11.3 | 0.00 | 0.00 | 0.00 | 40 | 1018.4 |
| 20260503200404 | 79 | 102 | 4.3 | 11.3 | 0.00 | 0.00 | 0.00 | 39 | 1018.4 |
| 20260503200302 | 79 | 96 | 3.5 | 13.0 | 0.00 | 0.00 | 0.00 | 40 | 1018.4 |
| 20260503200203 | 79 | 107 | 4.3 | 13.0 | 0.00 | 0.00 | 0.00 | 39 | 1018.5 |
| 20260503200003 | 79 | 110 | 7.0 | 13.0 | 0.00 | 0.00 | 0.00 | 39 | 1018.4 |
| 20260503195902 | 80 | 99 | 7.8 | 13.0 | 0.00 | 0.00 | 0.00 | 38 | 1018.4 |
| 20260503195802 | 80 | 113 | 7.0 | 13.0 | 0.00 | 0.00 | 0.00 | 38 | 1018.4 |
| 20260503195702 | 80 | 104 | 5.2 | 13.0 | 0.00 | 0.00 | 0.00 | 40 | 1018.5 |
| 20260503195602 | 80 | 118 | 5.2 | 13.0 | 0.00 | 0.00 | 0.00 | 39 | 1018.5 |
| 20260503195502 | 80 | 90 | 6.1 | 13.0 | 0.00 | 0.00 | 0.00 | 37 | 1018.5 |
| 20260503195403 | 81 | 102 | 7.8 | 13.0 | 0.00 | 0.00 | 0.00 | 38 | 1018.5 |
| 20260503195304 | 81 | 99 | 6.1 | 13.0 | 0.00 | 0.00 | 0.00 | 38 | 1018.6 |
| 20260503195202 | 81 | 96 | 5.2 | 9.6 | 0.00 | 0.00 | 0.00 | 39 | 1018.5 |
| 20260503195103 | 81 | 99 | 4.3 | 8.7 | 0.00 | 0.00 | 0.00 | 38 | 1018.5 |
| 20260503195005 | 81 | 65 | 3.5 | 8.7 | 0.00 | 0.00 | 0.00 | 39 | 1018.5 |
| 20260503194902 | 81 | 100 | 2.6 | 8.7 | 0.00 | 0.00 | 0.00 | 38 | 1018.5 |
| 20260503194802 | 81 | 155 | 1.7 | 8.7 | 0.00 | 0.00 | 0.00 | 37 | 1018.5 |
| 20260503194703 | 81 | 209 | 1.7 | 8.7 | 0.00 | 0.00 | 0.00 | 40 | 1018.5 |
| 20260503194602 | 81 | 100 | 1.7 | 8.7 | 0.00 | 0.00 | 0.00 | 38 | 1018.6 |
| 20260503194503 | 81 | 97 | 3.5 | 8.7 | 0.00 | 0.00 | 0.00 | 37 | 1018.6 |
| 20260503194403 | 82 | 135 | 3.5 | 8.7 | 0.00 | 0.00 | 0.00 | 38 | 1018.6 |
| 20260503194302 | 82 | 149 | 2.6 | 8.7 | 0.00 | 0.00 | 0.00 | 39 | 1018.6 |
| 20260503194202 | 81 | 144 | 1.7 | 7.8 | 0.00 | 0.00 | 0.00 | 38 | 1018.6 |
| 20260503194102 | 81 | 99 | 2.6 | 7.8 | 0.00 | 0.00 | 0.00 | 38 | 1018.6 |
| 20260503194004 | 81 | 113 | 2.6 | 7.8 | 0.00 | 0.00 | 0.00 | 37 | 1018.6 |
| 20260503193901 | 81 | 133 | 2.6 | 7.8 | 0.00 | 0.00 | 0.00 | 37 | 1018.6 |
| 20260503193802 | 81 | 28 | 3.5 | 8.7 | 0.00 | 0.00 | 0.00 | 38 | 1018.6 |
| 20260503193703 | 81 | 49 | 4.3 | 8.7 | 0.00 | 0.00 | 0.00 | 37 | 1018.8 |
| 20260503193602 | 81 | 97 | 4.3 | 8.7 | 0.00 | 0.00 | 0.00 | 38 | 1018.8 |
| 20260503193504 | 81 | 93 | 3.5 | 8.7 | 0.00 | 0.00 | 0.00 | 39 | 1018.8 |
| 20260503193403 | 81 | 90 | 3.5 | 8.7 | 0.00 | 0.00 | 0.00 | 39 | 1018.7 |
| 20260503193302 | 81 | 93 | 2.6 | 10.4 | 0.00 | 0.00 | 0.00 | 38 | 1018.8 |
| 20260503193202 | 81 | 158 | 3.5 | 10.4 | 0.00 | 0.00 | 0.00 | 37 | 1018.7 |
| 20260503193102 | 81 | 138 | 2.6 | 10.4 | 0.00 | 0.00 | 0.00 | 38 | 1018.8 |
| 20260503193002 | 81 | 131 | 3.5 | 10.4 | 0.00 | 0.00 | 0.00 | 38 | 1018.8 |
| 20260503192902 | 80 | 87 | 3.5 | 10.4 | 0.00 | 0.00 | 0.00 | 38 | 1018.8 |
| 20260503192802 | 80 | 213 | 2.6 | 10.4 | 0.00 | 0.00 | 0.00 | 37 | 1018.8 |
| 20260503192704 | 81 | 45 | 2.6 | 10.4 | 0.00 | 0.00 | 0.00 | 37 | 1018.9 |
| 20260503192602 | 80 | 73 | 4.3 | 10.4 | 0.00 | 0.00 | 0.00 | 38 | 1018.9 |
| 20260503192502 | 80 | 71 | 7.0 | 10.4 | 0.00 | 0.00 | 0.00 | 37 | 1019.0 |
| 20260503192403 | 81 | 78 | 7.0 | 10.4 | 0.00 | 0.00 | 0.00 | 37 | 1019.0 |
| 20260503192305 | 81 | 80 | 6.1 | 8.7 | 0.00 | 0.00 | 0.00 | 36 | 1019.0 |
| 20260503192202 | 81 | 89 | 5.2 | 8.7 | 0.00 | 0.00 | 0.00 | 38 | 1019.0 |
| 20260503192102 | 81 | 162 | 3.5 | 7.8 | 0.00 | 0.00 | 0.00 | 39 | 1019.0 |
| 20260503192004 | 81 | 185 | 1.7 | 7.8 | 0.00 | 0.00 | 0.00 | 37 | 1018.9 |
| 20260503191902 | 81 | 49 | 0.9 | 7.8 | 0.00 | 0.00 | 0.00 | 37 | 1019.0 |
| 20260503191802 | 81 | 78 | 2.6 | 8.7 | 0.00 | 0.00 | 0.00 | 37 | 1019.0 |
| 20260503191702 | 81 | 166 | 1.7 | 8.7 | 0.00 | 0.00 | 0.00 | 38 | 1019.0 |
| 20260503191603 | 81 | 189 | 0.9 | 8.7 | 0.00 | 0.00 | 0.00 | 37 | 1019.0 |
| 20260503191503 | 80 | 75 | 1.7 | 8.7 | 0.00 | 0.00 | 0.00 | 38 | 1019.1 |
| 20260503191402 | 80 | 13 | 3.5 | 8.7 | 0.00 | 0.00 | 0.00 | 37 | 1019.1 |
| 20260503191303 | 80 | 23 | 4.3 | 8.7 | 0.00 | 0.00 | 0.00 | 37 | 1019.1 |
| 20260503191203 | 80 | 35 | 4.3 | 8.7 | 0.00 | 0.00 | 0.00 | 37 | 1019.2 |
| 20260503191101 | 81 | 44 | 4.3 | 9.6 | 0.00 | 0.00 | 0.00 | 36 | 1019.2 |
| 20260503191004 | 81 | 52 | 5.2 | 9.6 | 0.00 | 0.00 | 0.00 | 36 | 1019.1 |
| 20260503190904 | 81 | 89 | 5.2 | 9.6 | 0.00 | 0.00 | 0.00 | 37 | 1019.2 |
| 20260503190803 | 81 | 87 | 2.6 | 9.6 | 0.00 | 0.00 | 0.00 | 37 | 1019.2 |
| 20260503190701 | 81 | 161 | 2.6 | 9.6 | 0.00 | 0.00 | 0.00 | 37 | 1019.2 |
| 20260503190601 | 80 | 16 | 3.5 | 9.6 | 0.00 | 0.00 | 0.00 | 37 | 1019.2 |
| 20260503190502 | 80 | 78 | 4.3 | 9.6 | 0.00 | 0.00 | 0.00 | 37 | 1019.2 |
| 20260503190403 | 80 | 102 | 5.2 | 9.6 | 0.00 | 0.00 | 0.00 | 36 | 1019.2 |
| 20260503190303 | 81 | 83 | 6.1 | 9.6 | 0.00 | 0.00 | 0.00 | 37 | 1019.2 |
| 20260503190203 | 81 | 82 | 6.1 | 9.6 | 0.00 | 0.00 | 0.00 | 37 | 1019.2 |
| 20260503190004 | 81 | 110 | 2.6 | 7.8 | 0.00 | 0.00 | 0.00 | 38 | 1019.1 |
| 20260503185903 | 81 | 62 | 1.7 | 7.8 | 0.00 | 0.00 | 0.00 | 37 | 1019.2 |
| 20260503185802 | 81 | 111 | 0.9 | 7.8 | 0.00 | 0.00 | 0.00 | 37 | 1019.2 |
| 20260503185702 | 80 | 125 | 2.6 | 7.8 | 0.00 | 0.00 | 0.00 | 37 | 1019.2 |
| 20260503185603 | 80 | 97 | 5.2 | 7.8 | 0.00 | 0.00 | 0.00 | 37 | 1019.3 |
| 20260503185502 | 81 | 63 | 5.2 | 7.8 | 0.00 | 0.00 | 0.00 | 38 | 1019.2 |
| 20260503185402 | 80 | 93 | 3.5 | 6.1 | 0.00 | 0.00 | 0.00 | 38 | 1019.2 |
| 20260503185304 | 80 | 31 | 3.5 | 6.1 | 0.00 | 0.00 | 0.00 | 39 | 1019.3 |
| 20260503185203 | 80 | 96 | 4.3 | 6.1 | 0.00 | 0.00 | 0.00 | 38 | 1019.3 |
| 20260503185103 | 80 | 93 | 5.2 | 6.1 | 0.00 | 0.00 | 0.00 | 38 | 1019.2 |
| 20260503185003 | 80 | 117 | 4.3 | 6.1 | 0.00 | 0.00 | 0.00 | 38 | 1019.3 |
| 20260503184903 | 81 | 120 | 4.3 | 6.1 | 0.00 | 0.00 | 0.00 | 39 | 1019.3 |
| 20260503184802 | 81 | 213 | 2.6 | 6.1 | 0.00 | 0.00 | 0.00 | 38 | 1019.3 |
| 20260503184703 | 80 | 250 | 1.7 | 6.1 | 0.00 | 0.00 | 0.00 | 39 | 1019.3 |
| 20260503184558 | 80 | 262 | 3.5 | 6.1 | 0.00 | 0.00 | 0.00 | 38 | 1019.3 |
| 20260503184457 | 80 | 316 | 4.3 | 7.8 | 0.00 | 0.00 | 0.00 | 37 | 1019.3 |
| 20260503184355 | 80 | 240 | 3.5 | 7.8 | 0.00 | 0.00 | 0.00 | 37 | 1019.3 |
| 20260503184256 | 80 | 285 | 2.6 | 7.8 | 0.00 | 0.00 | 0.00 | 37 | 1019.4 |
| 20260503184152 | 80 | 245 | 2.6 | 7.8 | 0.00 | 0.00 | 0.00 | 37 | 1019.4 |
| 20260503184051 | 80 | 224 | 2.6 | 7.8 | 0.00 | 0.00 | 0.00 | 38 | 1019.4 |
| 20260503183950 | 80 | 245 | 1.7 | 9.6 | 0.00 | 0.00 | 0.00 | 38 | 1019.4 |
| 20260503183848 | 79 | 303 | 2.6 | 9.6 | 0.00 | 0.00 | 0.00 | 37 | 1019.5 |
| 20260503183745 | 79 | 303 | 3.5 | 9.6 | 0.00 | 0.00 | 0.00 | 37 | 1019.5 |
| 20260503183645 | 80 | 298 | 3.5 | 11.3 | 0.00 | 0.00 | 0.00 | 36 | 1019.5 |
| 20260503183543 | 81 | 265 | 1.7 | 11.3 | 0.00 | 0.00 | 0.00 | 36 | 1019.6 |
| 20260503183442 | 80 | 47 | 2.6 | 11.3 | 0.00 | 0.00 | 0.00 | 37 | 1019.5 |
| 20260503183342 | 80 | 48 | 3.5 | 11.3 | 0.00 | 0.00 | 0.00 | 38 | 1019.6 |
| 20260503183240 | 80 | 82 | 3.5 | 13.0 | 0.00 | 0.00 | 0.00 | 38 | 1019.6 |
| 20260503183139 | 80 | 100 | 5.2 | 13.0 | 0.00 | 0.00 | 0.00 | 38 | 1019.5 |
| 20260503183036 | 80 | 83 | 6.1 | 13.0 | 0.00 | 0.00 | 0.00 | 37 | 1019.6 |
| 20260503182935 | 80 | 92 | 6.1 | 13.0 | 0.00 | 0.00 | 0.00 | 37 | 1019.6 |
| 20260503182833 | 80 | 123 | 7.8 | 13.0 | 0.00 | 0.00 | 0.00 | 37 | 1019.7 |
| 20260503182732 | 80 | 104 | 7.0 | 13.0 | 0.00 | 0.00 | 0.00 | 37 | 1019.7 |
| 20260503182630 | 81 | 106 | 7.0 | 13.0 | 0.00 | 0.00 | 0.00 | 38 | 1019.7 |
| 20260503182531 | 81 | 90 | 7.8 | 13.0 | 0.00 | 0.00 | 0.00 | 36 | 1019.7 |
| 20260503182433 | 81 | 82 | 8.7 | 13.0 | 0.00 | 0.00 | 0.00 | 37 | 1019.7 |
| 20260503182331 | 81 | 93 | 7.0 | 13.0 | 0.00 | 0.00 | 0.00 | 38 | 1019.7 |
| 20260503182230 | 81 | 78 | 5.2 | 9.6 | 0.00 | 0.00 | 0.00 | 37 | 1019.6 |
| 20260503182132 | 81 | 85 | 5.2 | 8.7 | 0.00 | 0.00 | 0.00 | 37 | 1019.7 |
| 20260503182032 | 81 | 90 | 3.5 | 6.1 | 0.00 | 0.00 | 0.00 | 39 | 1019.8 |
| 20260503181930 | 80 | 31 | 2.6 | 6.1 | 0.00 | 0.00 | 0.00 | 38 | 1019.8 |
| 20260503181828 | 80 | 61 | 2.6 | 6.1 | 0.00 | 0.00 | 0.00 | 37 | 1019.7 |
| 20260503181728 | 80 | 31 | 1.7 | 6.1 | 0.00 | 0.00 | 0.00 | 37 | 1019.8 |
| 20260503181624 | 80 | 63 | 1.7 | 8.7 | 0.00 | 0.00 | 0.00 | 37 | 1019.8 |
| 20260503181525 | 80 | 59 | 3.5 | 10.4 | 0.00 | 0.00 | 0.00 | 37 | 1019.8 |
| 20260503181422 | 80 | 68 | 4.3 | 10.4 | 0.00 | 0.00 | 0.00 | 37 | 1019.8 |
| 20260503181321 | 80 | 96 | 2.6 | 10.4 | 0.00 | 0.00 | 0.00 | 38 | 1019.9 |
| 20260503181221 | 80 | 255 | 0.9 | 10.4 | 0.00 | 0.00 | 0.00 | 38 | 1019.8 |
| 20260503181117 | 79 | 230 | 0.0 | 10.4 | 0.00 | 0.00 | 0.00 | 37 | 1019.9 |
| 20260503181017 | 79 | 234 | 0.0 | 10.4 | 0.00 | 0.00 | 0.00 | 36 | 1019.9 |
| 20260503180914 | 80 | 214 | 2.6 | 10.4 | 0.00 | 0.00 | 0.00 | 37 | 1019.9 |
| 20260503180813 | 80 | 83 | 3.5 | 10.4 | 0.00 | 0.00 | 0.00 | 37 | 1019.9 |
| 20260503180712 | 80 | 90 | 5.2 | 10.4 | 0.00 | 0.00 | 0.00 | 37 | 1019.9 |
| 20260503180610 | 79 | 0 | 5.2 | 10.4 | 0.00 | 0.00 | 0.00 | 38 | 1020.0 |
| 20260503180510 | 79 | 109 | 4.3 | 8.7 | 0.00 | 0.00 | 0.00 | 37 | 1019.9 |
| 20260503180409 | 80 | 85 | 6.1 | 8.7 | 0.00 | 0.00 | 0.00 | 37 | 1019.9 |
| 20260503180308 | 80 | 96 | 4.3 | 8.7 | 0.00 | 0.00 | 0.00 | 39 | 1020.0 |
| 20260503180205 | 80 | 31 | 2.6 | 7.8 | 0.00 | 0.00 | 0.00 | 37 | 1019.9 |
| 20260503180107 | 79 | 80 | 4.3 | 7.8 | 0.00 | 0.00 | 0.00 | 37 | 1020.0 |
| 20260503180004 | 80 | 109 | 5.2 | 7.8 | 0.00 | 0.00 | 0.00 | 37 | 1020.0 |
| 20260503175906 | 80 | 94 | 3.5 | 7.8 | 0.00 | 0.00 | 0.00 | 37 | 1020.1 |
| 20260503175805 | 80 | 117 | 1.7 | 6.1 | 0.00 | 0.00 | 0.00 | 38 | 1020.1 |
| 20260503175703 | 79 | 145 | 1.7 | 5.2 | 0.00 | 0.00 | 0.00 | 37 | 1020.0 |
| 20260503175605 | 79 | 128 | 2.6 | 5.2 | 0.00 | 0.00 | 0.00 | 39 | 1020.1 |
| 20260503175504 | 79 | 131 | 1.7 | 5.2 | 0.00 | 0.00 | 0.00 | 37 | 1020.1 |
| 20260503175404 | 79 | 110 | 2.6 | 5.2 | 0.00 | 0.00 | 0.00 | 38 | 1020.2 |
| 20260503175304 | 79 | 89 | 1.7 | 5.2 | 0.00 | 0.00 | 0.00 | 37 | 1020.2 |
| 20260503175205 | 79 | 66 | 1.7 | 5.2 | 0.00 | 0.00 | 0.00 | 37 | 1020.2 |
| 20260503175105 | 79 | 66 | 1.7 | 6.1 | 0.00 | 0.00 | 0.00 | 37 | 1020.2 |
| 20260503175004 | 79 | 66 | 2.6 | 6.1 | 0.00 | 0.00 | 0.00 | 37 | 1020.2 |
| 20260503174904 | 79 | 66 | 3.5 | 6.1 | 0.00 | 0.00 | 0.00 | 37 | 1020.3 |
| 20260503174804 | 79 | 85 | 3.5 | 6.1 | 0.00 | 0.00 | 0.00 | 37 | 1020.3 |
| 20260503174704 | 80 | 93 | 3.5 | 8.7 | 0.00 | 0.00 | 0.00 | 37 | 1020.4 |
| 20260503174604 | 80 | 82 | 2.6 | 8.7 | 0.00 | 0.00 | 0.00 | 38 | 1020.4 |
| 20260503174505 | 80 | 168 | 2.6 | 8.7 | 0.00 | 0.00 | 0.00 | 38 | 1020.4 |
| 20260503174404 | 80 | 168 | 2.6 | 8.7 | 0.00 | 0.00 | 0.00 | 38 | 1020.3 |
| 20260503174304 | 80 | 114 | 3.5 | 8.7 | 0.00 | 0.00 | 0.00 | 40 | 1020.5 |
| 20260503174204 | 79 | 128 | 5.2 | 8.7 | 0.00 | 0.00 | 0.00 | 39 | 1020.4 |
| 20260503174105 | 79 | 87 | 5.2 | 8.7 | 0.00 | 0.00 | 0.00 | 37 | 1020.5 |
| 20260503174003 | 80 | 89 | 4.3 | 8.7 | 0.00 | 0.00 | 0.00 | 39 | 1020.5 |
| 20260503173904 | 79 | 182 | 4.3 | 8.7 | 0.00 | 0.00 | 0.00 | 39 | 1020.5 |
| 20260503173803 | 79 | 186 | 3.5 | 8.7 | 0.00 | 0.00 | 0.00 | 40 | 1020.6 |
| 20260503173704 | 79 | 183 | 3.5 | 6.1 | 0.00 | 0.00 | 0.00 | 40 | 1020.6 |
| 20260503173603 | 78 | 190 | 2.6 | 6.1 | 0.00 | 0.00 | 0.00 | 40 | 1020.6 |
| 20260503173505 | 78 | 103 | 1.7 | 6.1 | 0.00 | 0.00 | 0.00 | 39 | 1020.6 |
| 20260503173404 | 79 | 238 | 1.7 | 6.1 | 0.00 | 0.00 | 0.00 | 39 | 1020.6 |
| 20260503173304 | 79 | 221 | 2.6 | 6.1 | 0.00 | 0.00 | 0.00 | 40 | 1020.6 |
| 20260503173204 | 79 | 107 | 3.5 | 6.1 | 0.00 | 0.00 | 0.00 | 39 | 1020.6 |
| 20260503173104 | 79 | 185 | 2.6 | 6.1 | 0.00 | 0.00 | 0.00 | 40 | 1020.6 |
| 20260503173004 | 79 | 210 | 1.7 | 6.1 | 0.00 | 0.00 | 0.00 | 40 | 1020.7 |
| 20260503172903 | 79 | 28 | 1.7 | 6.1 | 0.00 | 0.00 | 0.00 | 39 | 1020.7 |
| 20260503172804 | 79 | 28 | 1.7 | 6.1 | 0.00 | 0.00 | 0.00 | 39 | 1020.8 |
| 20260503172704 | 79 | 16 | 1.7 | 6.1 | 0.00 | 0.00 | 0.00 | 39 | 1020.7 |
| 20260503172604 | 79 | 66 | 1.7 | 6.1 | 0.00 | 0.00 | 0.00 | 39 | 1020.7 |
| 20260503172503 | 79 | 72 | 3.5 | 7.8 | 0.00 | 0.00 | 0.00 | 39 | 1020.8 |
| 20260503172404 | 79 | 113 | 3.5 | 7.8 | 0.00 | 0.00 | 0.00 | 40 | 1020.8 |
| 20260503172305 | 79 | 85 | 1.7 | 7.8 | 0.00 | 0.00 | 0.00 | 42 | 1020.8 |
| 20260503172202 | 79 | 144 | 1.7 | 7.8 | 0.00 | 0.00 | 0.00 | 42 | 1020.8 |
| 20260503172101 | 78 | 193 | 2.6 | 8.7 | 0.00 | 0.00 | 0.00 | 41 | 1020.8 |
| 20260503172003 | 78 | 207 | 2.6 | 8.7 | 0.00 | 0.00 | 0.00 | 41 | 1020.9 |
| 20260503171901 | 78 | 106 | 2.6 | 8.7 | 0.00 | 0.00 | 0.00 | 40 | 1020.9 |
| 20260503171800 | 78 | 89 | 3.5 | 8.7 | 0.00 | 0.00 | 0.00 | 40 | 1020.9 |
| 20260503171658 | 79 | 120 | 5.2 | 8.7 | 0.00 | 0.00 | 0.00 | 40 | 1020.9 |
| 20260503171553 | 79 | 114 | 6.1 | 8.7 | 0.00 | 0.00 | 0.00 | 40 | 1021.0 |
| 20260503171453 | 80 | 118 | 5.2 | 8.7 | 0.00 | 0.00 | 0.00 | 40 | 1020.9 |
| 20260503171354 | 80 | 113 | 4.3 | 8.7 | 0.00 | 0.00 | 0.00 | 42 | 1020.9 |
| 20260503171252 | 80 | 168 | 5.2 | 8.7 | 0.00 | 0.00 | 0.00 | 41 | 1020.8 |
| 20260503171151 | 80 | 144 | 5.2 | 8.7 | 0.00 | 0.00 | 0.00 | 42 | 1020.8 |
| 20260503171048 | 80 | 186 | 3.5 | 8.7 | 0.00 | 0.00 | 0.00 | 42 | 1020.9 |
| 20260503170946 | 80 | 62 | 2.6 | 8.7 | 0.00 | 0.00 | 0.00 | 41 | 1020.8 |
| 20260503170846 | 80 | 121 | 4.3 | 8.7 | 0.00 | 0.00 | 0.00 | 41 | 1020.9 |
| 20260503170744 | 80 | 117 | 3.5 | 8.7 | 0.00 | 0.00 | 0.00 | 40 | 1020.8 |
| 20260503170643 | 80 | 80 | 2.6 | 5.2 | 0.00 | 0.00 | 0.00 | 41 | 1020.8 |
| 20260503170541 | 80 | 82 | 1.7 | 3.5 | 0.00 | 0.00 | 0.00 | 42 | 1020.8 |
| 20260503170440 | 80 | 247 | 1.7 | 3.5 | 0.00 | 0.00 | 0.00 | 41 | 1020.9 |
| 20260503170339 | 80 | 219 | 0.9 | 4.3 | 0.00 | 0.00 | 0.00 | 40 | 1020.8 |
| 20260503170238 | 80 | 11 | 0.0 | 4.3 | 0.00 | 0.00 | 0.00 | 39 | 1020.9 |
| 20260503170136 | 80 | 11 | 0.0 | 4.3 | 0.00 | 0.00 | 0.00 | 40 | 1020.9 |
| 20260503160159 | 77 | 96 | 0.9 | 7.8 | 0.00 | 0.00 | 0.00 | 42 | 1021.1 |
| 20260503151009 | 75 | 207 | 3.5 | 8.7 | 0.00 | 0.00 | 0.00 | 52 | 1020.9 |
| 20260503150906 | 75 | 189 | 3.5 | 8.7 | 0.00 | 0.00 | 0.00 | 52 | 1020.9 |
| 20260503150804 | 75 | 199 | 4.3 | 8.7 | 0.00 | 0.00 | 0.00 | 51 | 1020.9 |
| 20260503150703 | 75 | 182 | 3.5 | 9.6 | 0.00 | 0.00 | 0.00 | 54 | 1020.9 |
| 20260503150603 | 75 | 154 | 1.7 | 9.6 | 0.00 | 0.00 | 0.00 | 55 | 1020.8 |
| 20260503150502 | 74 | 169 | 2.6 | 9.6 | 0.00 | 0.00 | 0.00 | 54 | 1020.8 |
| 20260503150403 | 74 | 203 | 3.5 | 9.6 | 0.00 | 0.00 | 0.00 | 53 | 1020.8 |
| 20260503150303 | 74 | 145 | 4.3 | 9.6 | 0.00 | 0.00 | 0.00 | 53 | 1020.8 |
| 20260503150202 | 74 | 189 | 2.6 | 9.6 | 0.00 | 0.00 | 0.00 | 55 | 1020.8 |
| 20260503140302 | 69 | 56 | 0.0 | 2.6 | 0.00 | 0.00 | 0.00 | 70 | 1020.7 |
| 20260503140200 | 69 | 51 | 0.0 | 1.7 | 0.00 | 0.00 | 0.00 | 71 | 1020.7 |
| 20260503131358 | 64 | 13 | 0.0 | 2.6 | 0.00 | 0.00 | 0.00 | 83 | 1020.5 |
| 20260503131258 | 63 | 13 | 0.0 | 2.6 | 0.00 | 0.00 | 0.00 | 83 | 1020.5 |
| 20260503131157 | 63 | 13 | 0.0 | 2.6 | 0.00 | 0.00 | 0.00 | 84 | 1020.4 |
| 20260503131058 | 63 | 13 | 0.9 | 2.6 | 0.00 | 0.00 | 0.00 | 84 | 1020.5 |
| 20260503130958 | 63 | 13 | 0.9 | 2.6 | 0.00 | 0.00 | 0.00 | 85 | 1020.4 |
| 20260503130859 | 63 | 13 | 0.9 | 2.6 | 0.00 | 0.00 | 0.00 | 85 | 1020.4 |
| 20260503130758 | 62 | 13 | 0.9 | 2.6 | 0.00 | 0.00 | 0.00 | 85 | 1020.4 |
| 20260503130658 | 62 | 13 | 0.9 | 2.6 | 0.00 | 0.00 | 0.00 | 85 | 1020.5 |
| 20260503130557 | 62 | 13 | 1.7 | 2.6 | 0.00 | 0.00 | 0.00 | 86 | 1020.4 |
| 20260503130458 | 62 | 13 | 1.7 | 2.6 | 0.00 | 0.00 | 0.00 | 86 | 1020.3 |
| 20260503130359 | 62 | 13 | 1.7 | 2.6 | 0.00 | 0.00 | 0.00 | 87 | 1020.4 |
| 20260503130258 | 62 | 13 | 0.9 | 2.6 | 0.00 | 0.00 | 0.00 | 87 | 1020.4 |
| 20260503130157 | 62 | 13 | 0.9 | 2.6 | 0.00 | 0.00 | 0.00 | 87 | 1020.3 |
| 20260503120157 | 56 | 13 | 0.0 | 0.0 | 0.00 | 0.00 | 0.00 | 93 | 1019.9 |
| 20260503110754 | 56 | 11 | 0.0 | 1.7 | 0.00 | 0.00 | 0.00 | 92 | 1019.4 |
| 20260503110654 | 56 | 11 | 0.0 | 1.7 | 0.00 | 0.00 | 0.00 | 92 | 1019.4 |
| 20260503110556 | 56 | 11 | 0.0 | 1.7 | 0.00 | 0.00 | 0.00 | 92 | 1019.5 |
| 20260503110456 | 56 | 11 | 0.9 | 1.7 | 0.00 | 0.00 | 0.00 | 92 | 1019.5 |
| 20260503110355 | 56 | 11 | 0.9 | 1.7 | 0.00 | 0.00 | 0.00 | 92 | 1019.4 |
| 20260503110255 | 56 | 11 | 0.9 | 1.7 | 0.00 | 0.00 | 0.00 | 92 | 1019.5 |
| 20260503110154 | 56 | 7 | 0.0 | 0.0 | 0.00 | 0.00 | 0.00 | 92 | 1019.5 |
| 20260503100257 | 56 | 7 | 0.0 | 0.0 | 0.00 | 0.00 | 0.00 | 91 | 1019.1 |
| 20260503100156 | 56 | 7 | 0.0 | 0.0 | 0.00 | 0.00 | 0.00 | 91 | 1019.0 |
| 20260503090454 | 57 | 8 | 0.0 | 0.0 | 0.00 | 0.00 | 0.00 | 89 | 1018.8 |
| 20260503090352 | 57 | 7 | 0.0 | 0.0 | 0.00 | 0.00 | 0.00 | 89 | 1018.9 |
| 20260503090251 | 57 | 7 | 0.0 | 0.0 | 0.00 | 0.00 | 0.00 | 89 | 1018.9 |
| 20260503090152 | 57 | 7 | 0.0 | 0.0 | 0.00 | 0.00 | 0.00 | 90 | 1018.9 |
| 20260503081550 | 58 | 7 | 0.0 | 0.0 | 0.00 | 0.00 | 0.00 | 87 | 1018.9 |
| 20260503081450 | 59 | 7 | 0.0 | 0.0 | 0.00 | 0.00 | 0.00 | 87 | 1019.1 |
| 20260503081350 | 59 | 7 | 0.0 | 0.0 | 0.00 | 0.00 | 0.00 | 88 | 1019.1 |
| 20260503081252 | 59 | 7 | 0.0 | 0.0 | 0.00 | 0.00 | 0.00 | 87 | 1019.0 |
| 20260503081151 | 59 | 7 | 0.0 | 0.0 | 0.00 | 0.00 | 0.00 | 87 | 1019.1 |
| 20260503081050 | 59 | 7 | 0.0 | 0.0 | 0.00 | 0.00 | 0.00 | 87 | 1019.1 |
| 20260503080951 | 59 | 7 | 0.0 | 0.0 | 0.00 | 0.00 | 0.00 | 87 | 1019.1 |
| 20260503080852 | 59 | 7 | 0.0 | 0.0 | 0.00 | 0.00 | 0.00 | 87 | 1019.1 |
| 20260503080750 | 59 | 7 | 0.0 | 0.0 | 0.00 | 0.00 | 0.00 | 87 | 1019.1 |
| 20260503080651 | 59 | 7 | 0.0 | 0.0 | 0.00 | 0.00 | 0.00 | 86 | 1019.1 |
| 20260503080551 | 59 | 7 | 0.0 | 0.0 | 0.00 | 0.00 | 0.00 | 87 | 1019.0 |
| 20260503080451 | 59 | 7 | 0.0 | 0.0 | 0.00 | 0.00 | 0.00 | 87 | 1019.0 |
| 20260503080350 | 59 | 7 | 0.0 | 0.0 | 0.00 | 0.00 | 0.00 | 87 | 1019.0 |
| 20260503080250 | 59 | 7 | 0.0 | 0.0 | 0.00 | 0.00 | 0.00 | 87 | 1019.0 |
| 20260503080150 | 59 | 7 | 0.0 | 0.0 | 0.00 | 0.00 | 0.00 | 87 | 1019.0 |
| 20260503072924 | 60 | 7 | 0.0 | 0.0 | 0.00 | 0.00 | 0.00 | 84 | 1018.9 |
| 20260503072823 | 60 | 7 | 0.0 | 0.0 | 0.00 | 0.00 | 0.00 | 84 | 1018.9 |
| 20260503072720 | 60 | 7 | 0.0 | 0.0 | 0.00 | 0.00 | 0.00 | 84 | 1018.9 |
| 20260503072617 | 60 | 7 | 0.0 | 0.0 | 0.00 | 0.00 | 0.00 | 84 | 1018.8 |
| 20260503072516 | 60 | 7 | 0.0 | 0.0 | 0.00 | 0.00 | 0.00 | 85 | 1018.9 |
| 20260503072414 | 60 | 7 | 0.0 | 0.0 | 0.00 | 0.00 | 0.00 | 84 | 1018.9 |
| 20260503072314 | 60 | 7 | 0.0 | 0.0 | 0.00 | 0.00 | 0.00 | 84 | 1018.9 |
| 20260503072212 | 60 | 7 | 0.0 | 0.0 | 0.00 | 0.00 | 0.00 | 84 | 1018.9 |
| 20260503072111 | 60 | 7 | 0.0 | 0.0 | 0.00 | 0.00 | 0.00 | 85 | 1019.0 |
| 20260503072010 | 60 | 7 | 0.0 | 0.0 | 0.00 | 0.00 | 0.00 | 85 | 1019.0 |
| 20260503071909 | 60 | 7 | 0.0 | 0.0 | 0.00 | 0.00 | 0.00 | 85 | 1018.9 |
| 20260503071806 | 60 | 7 | 0.0 | 0.0 | 0.00 | 0.00 | 0.00 | 85 | 1018.9 |
| 20260503071702 | 60 | 7 | 0.0 | 0.0 | 0.00 | 0.00 | 0.00 | 85 | 1018.9 |
| 20260503071605 | 59 | 7 | 0.0 | 0.0 | 0.00 | 0.00 | 0.00 | 85 | 1019.0 |
| 20260503071505 | 59 | 7 | 0.0 | 0.0 | 0.00 | 0.00 | 0.00 | 86 | 1019.0 |
| 20260503071402 | 59 | 7 | 0.0 | 0.0 | 0.00 | 0.00 | 0.00 | 86 | 1019.0 |
| 20260503071303 | 59 | 7 | 0.0 | 0.0 | 0.00 | 0.00 | 0.00 | 86 | 1018.9 |
| 20260503071204 | 59 | 7 | 0.0 | 0.0 | 0.00 | 0.00 | 0.00 | 86 | 1019.0 |
| 20260503071102 | 59 | 7 | 0.0 | 0.0 | 0.00 | 0.00 | 0.00 | 85 | 1019.0 |
| 20260503071002 | 59 | 7 | 0.0 | 0.0 | 0.00 | 0.00 | 0.00 | 85 | 1019.0 |
| 20260503070904 | 60 | 7 | 0.0 | 0.0 | 0.00 | 0.00 | 0.00 | 85 | 1019.0 |
| 20260503070802 | 60 | 7 | 0.0 | 0.0 | 0.00 | 0.00 | 0.00 | 86 | 1019.0 |
| 20260503070702 | 59 | 7 | 0.0 | 0.0 | 0.00 | 0.00 | 0.00 | 86 | 1019.0 |
| 20260503070604 | 60 | 7 | 0.0 | 0.0 | 0.00 | 0.00 | 0.00 | 86 | 1019.1 |
| 20260503070504 | 59 | 7 | 0.0 | 0.0 | 0.00 | 0.00 | 0.00 | 86 | 1019.0 |
| 20260503070402 | 59 | 7 | 0.0 | 0.0 | 0.00 | 0.00 | 0.00 | 86 | 1019.1 |
| 20260503070302 | 59 | 7 | 0.0 | 0.0 | 0.00 | 0.00 | 0.00 | 86 | 1019.1 |
| 20260503070204 | 59 | 7 | 0.0 | 0.0 | 0.00 | 0.00 | 0.00 | 86 | 1019.0 |
| 20260503060303 | 60 | 8 | 0.0 | 0.0 | 0.00 | 0.00 | 0.00 | 84 | 1019.1 |
| 20260503060204 | 60 | 8 | 0.0 | 0.0 | 0.00 | 0.00 | 0.00 | 84 | 1019.1 |
| 20260503055102 | 60 | 8 | 0.0 | 1.7 | 0.00 | 0.00 | 0.00 | 84 | 1019.3 |
| 20260503055004 | 60 | 8 | 0.0 | 1.7 | 0.00 | 0.00 | 0.00 | 84 | 1019.3 |
| 20260503054902 | 61 | 8 | 0.0 | 1.7 | 0.00 | 0.00 | 0.00 | 84 | 1019.3 |
| 20260503054802 | 61 | 8 | 0.9 | 1.7 | 0.00 | 0.00 | 0.00 | 84 | 1019.3 |
| 20260503054703 | 61 | 8 | 0.9 | 1.7 | 0.00 | 0.00 | 0.00 | 84 | 1019.2 |
| 20260503054602 | 61 | 8 | 0.9 | 1.7 | 0.00 | 0.00 | 0.00 | 83 | 1019.2 |
| 20260503054502 | 61 | 8 | 0.9 | 1.7 | 0.00 | 0.00 | 0.00 | 84 | 1019.2 |
| 20260503054403 | 61 | 8 | 1.7 | 1.7 | 0.00 | 0.00 | 0.00 | 83 | 1019.2 |
| 20260503054303 | 61 | 8 | 0.9 | 1.7 | 0.00 | 0.00 | 0.00 | 84 | 1019.1 |
| 20260503054202 | 61 | 8 | 0.9 | 1.7 | 0.00 | 0.00 | 0.00 | 84 | 1019.2 |
| 20260503054103 | 61 | 8 | 0.9 | 1.7 | 0.00 | 0.00 | 0.00 | 84 | 1019.1 |
| 20260503054005 | 61 | 8 | 1.7 | 1.7 | 0.00 | 0.00 | 0.00 | 83 | 1019.0 |
| 20260503053902 | 61 | 8 | 0.9 | 1.7 | 0.00 | 0.00 | 0.00 | 83 | 1019.1 |
| 20260503053804 | 61 | 8 | 0.0 | 0.0 | 0.00 | 0.00 | 0.00 | 83 | 1019.0 |
| 20260503053704 | 61 | 8 | 0.0 | 0.0 | 0.00 | 0.00 | 0.00 | 83 | 1019.0 |
| 20260503053603 | 61 | 8 | 0.0 | 0.0 | 0.00 | 0.00 | 0.00 | 84 | 1019.0 |
| 20260503053503 | 61 | 8 | 0.0 | 0.0 | 0.00 | 0.00 | 0.00 | 84 | 1018.9 |
| 20260503053403 | 61 | 8 | 0.0 | 0.0 | 0.00 | 0.00 | 0.00 | 83 | 1019.0 |
| 20260503053303 | 61 | 8 | 0.0 | 0.0 | 0.00 | 0.00 | 0.00 | 84 | 1019.0 |
| 20260503053202 | 61 | 8 | 0.0 | 0.0 | 0.00 | 0.00 | 0.00 | 84 | 1018.9 |
| 20260503053102 | 61 | 8 | 0.0 | 0.0 | 0.00 | 0.00 | 0.00 | 84 | 1018.9 |
| 20260503053003 | 61 | 8 | 0.0 | 0.9 | 0.00 | 0.00 | 0.00 | 84 | 1018.9 |
| 20260503052902 | 61 | 8 | 0.0 | 0.9 | 0.00 | 0.00 | 0.00 | 84 | 1018.9 |
| 20260503052802 | 61 | 8 | 0.0 | 1.7 | 0.00 | 0.00 | 0.00 | 84 | 1018.9 |
| 20260503052702 | 61 | 8 | 0.0 | 1.7 | 0.00 | 0.00 | 0.00 | 84 | 1018.9 |
| 20260503052602 | 61 | 8 | 0.0 | 1.7 | 0.00 | 0.00 | 0.00 | 84 | 1018.9 |
| 20260503052502 | 61 | 8 | 0.0 | 1.7 | 0.00 | 0.00 | 0.00 | 84 | 1018.9 |
| 20260503052403 | 61 | 8 | 0.0 | 1.7 | 0.00 | 0.00 | 0.00 | 84 | 1019.0 |
| 20260503052305 | 61 | 8 | 0.0 | 1.7 | 0.00 | 0.00 | 0.00 | 84 | 1019.0 |
| 20260503052203 | 61 | 8 | 0.0 | 1.7 | 0.00 | 0.00 | 0.00 | 84 | 1019.0 |
| 20260503052102 | 61 | 8 | 0.9 | 1.7 | 0.00 | 0.00 | 0.00 | 84 | 1019.0 |
| 20260503052002 | 61 | 8 | 0.9 | 1.7 | 0.00 | 0.00 | 0.00 | 84 | 1019.0 |
| 20260503051904 | 61 | 8 | 1.7 | 1.7 | 0.00 | 0.00 | 0.00 | 84 | 1019.0 |
| 20260503051802 | 61 | 8 | 0.9 | 1.7 | 0.00 | 0.00 | 0.00 | 84 | 1019.0 |
| 20260503051702 | 61 | 8 | 0.9 | 1.7 | 0.00 | 0.00 | 0.00 | 83 | 1018.9 |
| 20260503051603 | 61 | 8 | 0.9 | 1.7 | 0.00 | 0.00 | 0.00 | 83 | 1019.0 |
| 20260503051502 | 61 | 8 | 0.9 | 1.7 | 0.00 | 0.00 | 0.00 | 83 | 1019.0 |
| 20260503051403 | 61 | 8 | 0.9 | 1.7 | 0.00 | 0.00 | 0.00 | 83 | 1019.0 |
| 20260503051302 | 61 | 8 | 0.9 | 1.7 | 0.00 | 0.00 | 0.00 | 83 | 1019.0 |
| 20260503051203 | 61 | 8 | 0.0 | 0.0 | 0.00 | 0.00 | 0.00 | 82 | 1019.0 |
| 20260503051103 | 61 | 8 | 0.0 | 0.0 | 0.00 | 0.00 | 0.00 | 82 | 1019.0 |
| 20260503050948 | 61 | 8 | 0.0 | 0.0 | 0.00 | 0.00 | 0.00 | 82 | 1019.0 |
| 20260503050847 | 61 | 8 | 0.0 | 0.0 | 0.00 | 0.00 | 0.00 | 82 | 1019.1 |
| 20260503050746 | 61 | 8 | 0.0 | 0.0 | 0.00 | 0.00 | 0.00 | 82 | 1018.9 |
| 20260503050646 | 61 | 8 | 0.0 | 0.0 | 0.00 | 0.00 | 0.00 | 81 | 1018.9 |
| 20260503050548 | 62 | 8 | 0.0 | 0.0 | 0.00 | 0.00 | 0.00 | 82 | 1018.9 |
| 20260503050448 | 62 | 8 | 0.0 | 0.0 | 0.00 | 0.00 | 0.00 | 82 | 1018.9 |
| 20260503050346 | 62 | 8 | 0.0 | 0.0 | 0.00 | 0.00 | 0.00 | 82 | 1018.9 |
| 20260503050246 | 62 | 8 | 0.0 | 0.0 | 0.00 | 0.00 | 0.00 | 81 | 1018.9 |
| 20260503050148 | 62 | 8 | 0.0 | 0.0 | 0.00 | 0.00 | 0.00 | 81 | 1018.9 |
| 20260503050046 | 62 | 8 | 0.0 | 0.0 | 0.00 | 0.00 | 0.00 | 81 | 1018.9 |
| 20260503045946 | 62 | 8 | 0.0 | 0.0 | 0.00 | 0.00 | 0.00 | 81 | 1018.8 |
| 20260503045847 | 62 | 8 | 0.0 | 0.0 | 0.00 | 0.00 | 0.00 | 81 | 1018.9 |
| 20260503045747 | 62 | 8 | 0.0 | 0.0 | 0.00 | 0.00 | 0.00 | 81 | 1018.9 |
| 20260503045647 | 62 | 8 | 0.0 | 0.0 | 0.00 | 0.00 | 0.00 | 81 | 1018.9 |
| 20260503045546 | 62 | 8 | 0.0 | 0.0 | 0.00 | 0.00 | 0.00 | 81 | 1018.9 |
| 20260503045444 | 62 | 8 | 0.0 | 0.0 | 0.00 | 0.00 | 0.00 | 80 | 1018.8 |
| 20260503045341 | 62 | 8 | 0.0 | 0.0 | 0.00 | 0.00 | 0.00 | 80 | 1018.9 |
| 20260503045239 | 62 | 8 | 0.0 | 0.0 | 0.00 | 0.00 | 0.00 | 80 | 1018.8 |
| 20260503045137 | 62 | 8 | 0.0 | 0.0 | 0.00 | 0.00 | 0.00 | 80 | 1018.8 |
| 20260503045037 | 62 | 8 | 0.0 | 0.0 | 0.00 | 0.00 | 0.00 | 80 | 1018.8 |
| 20260503044934 | 62 | 8 | 0.0 | 0.0 | 0.00 | 0.00 | 0.00 | 79 | 1018.7 |
| 20260503044833 | 62 | 8 | 0.0 | 0.0 | 0.00 | 0.00 | 0.00 | 79 | 1018.8 |
| 20260503044732 | 62 | 8 | 0.0 | 0.0 | 0.00 | 0.00 | 0.00 | 79 | 1018.7 |
| 20260503044631 | 62 | 8 | 0.0 | 0.0 | 0.00 | 0.00 | 0.00 | 78 | 1018.7 |
| 20260503044532 | 62 | 8 | 0.0 | 0.0 | 0.00 | 0.00 | 0.00 | 78 | 1018.8 |
| 20260503044431 | 62 | 8 | 0.0 | 0.0 | 0.00 | 0.00 | 0.00 | 78 | 1018.7 |
| 20260503044332 | 62 | 8 | 0.0 | 0.0 | 0.00 | 0.00 | 0.00 | 78 | 1018.7 |
| 20260503044231 | 62 | 8 | 0.0 | 0.0 | 0.00 | 0.00 | 0.00 | 79 | 1018.7 |
| 20260503044133 | 62 | 8 | 0.0 | 0.0 | 0.00 | 0.00 | 0.00 | 79 | 1018.7 |
| 20260503044033 | 62 | 8 | 0.0 | 0.0 | 0.00 | 0.00 | 0.00 | 79 | 1018.7 |
| 20260503043930 | 62 | 8 | 0.0 | 0.0 | 0.00 | 0.00 | 0.00 | 78 | 1018.7 |
| 20260503043831 | 62 | 8 | 0.0 | 0.0 | 0.00 | 0.00 | 0.00 | 78 | 1018.7 |
| 20260503043731 | 62 | 8 | 0.0 | 0.0 | 0.00 | 0.00 | 0.00 | 78 | 1018.7 |
| 20260503043631 | 62 | 8 | 0.0 | 0.0 | 0.00 | 0.00 | 0.00 | 79 | 1018.6 |
| 20260503043531 | 62 | 8 | 0.0 | 0.0 | 0.00 | 0.00 | 0.00 | 78 | 1018.6 |
| 20260503043432 | 62 | 8 | 0.0 | 0.0 | 0.00 | 0.00 | 0.00 | 78 | 1018.6 |
| 20260503043331 | 62 | 8 | 0.0 | 0.0 | 0.00 | 0.00 | 0.00 | 78 | 1018.6 |
| 20260503043231 | 62 | 8 | 0.0 | 0.0 | 0.00 | 0.00 | 0.00 | 78 | 1018.6 |
| 20260503043133 | 62 | 8 | 0.0 | 0.0 | 0.00 | 0.00 | 0.00 | 78 | 1018.7 |
| 20260503043031 | 62 | 8 | 0.0 | 0.9 | 0.00 | 0.00 | 0.00 | 77 | 1018.7 |
| 20260503042931 | 62 | 8 | 0.0 | 0.9 | 0.00 | 0.00 | 0.00 | 77 | 1018.7 |
| 20260503042830 | 63 | 8 | 0.0 | 0.9 | 0.00 | 0.00 | 0.00 | 76 | 1018.6 |
| 20260503042732 | 63 | 8 | 0.0 | 0.9 | 0.00 | 0.00 | 0.00 | 76 | 1018.7 |
| 20260503042631 | 63 | 8 | 0.0 | 0.9 | 0.00 | 0.00 | 0.00 | 75 | 1018.6 |
| 20260503042531 | 63 | 8 | 0.0 | 0.9 | 0.00 | 0.00 | 0.00 | 75 | 1018.7 |
| 20260503042433 | 63 | 8 | 0.0 | 0.9 | 0.00 | 0.00 | 0.00 | 74 | 1018.7 |
| 20260503042332 | 64 | 8 | 0.0 | 0.9 | 0.00 | 0.00 | 0.00 | 74 | 1018.7 |
| 20260503042232 | 64 | 8 | 0.0 | 0.9 | 0.00 | 0.00 | 0.00 | 73 | 1018.7 |
| 20260503042132 | 64 | 8 | 0.0 | 0.9 | 0.00 | 0.00 | 0.00 | 72 | 1018.7 |
| 20260503042032 | 64 | 8 | 0.0 | 0.0 | 0.00 | 0.00 | 0.00 | 73 | 1018.7 |
| 20260503041929 | 64 | 8 | 0.0 | 0.0 | 0.00 | 0.00 | 0.00 | 73 | 1018.7 |
| 20260503041828 | 64 | 8 | 0.0 | 0.0 | 0.00 | 0.00 | 0.00 | 73 | 1018.8 |
| 20260503041727 | 64 | 8 | 0.0 | 0.0 | 0.00 | 0.00 | 0.00 | 74 | 1018.8 |
| 20260503041626 | 63 | 8 | 0.0 | 0.0 | 0.00 | 0.00 | 0.00 | 74 | 1018.8 |
| 20260503041524 | 63 | 8 | 0.0 | 0.0 | 0.00 | 0.00 | 0.00 | 74 | 1018.8 |
| 20260503041422 | 63 | 8 | 0.0 | 0.0 | 0.00 | 0.00 | 0.00 | 75 | 1018.8 |
| 20260503041321 | 63 | 8 | 0.0 | 0.0 | 0.00 | 0.00 | 0.00 | 75 | 1018.8 |
| 20260503041220 | 63 | 8 | 0.0 | 0.0 | 0.00 | 0.00 | 0.00 | 76 | 1018.9 |
| 20260503041118 | 63 | 8 | 0.0 | 0.0 | 0.00 | 0.00 | 0.00 | 76 | 1018.8 |
| 20260503041017 | 63 | 8 | 0.0 | 0.0 | 0.00 | 0.00 | 0.00 | 76 | 1018.8 |
| 20260503040914 | 62 | 8 | 0.0 | 0.0 | 0.00 | 0.00 | 0.00 | 76 | 1018.9 |
| 20260503040814 | 63 | 8 | 0.0 | 0.0 | 0.00 | 0.00 | 0.00 | 76 | 1018.8 |
| 20260503040712 | 63 | 8 | 0.0 | 0.0 | 0.00 | 0.00 | 0.00 | 76 | 1018.8 |
| 20260503040610 | 63 | 8 | 0.0 | 0.0 | 0.00 | 0.00 | 0.00 | 76 | 1018.8 |
| 20260503040510 | 63 | 8 | 0.0 | 0.0 | 0.00 | 0.00 | 0.00 | 74 | 1018.9 |
| 20260503040403 | 63 | 8 | 0.0 | 0.0 | 0.00 | 0.00 | 0.00 | 73 | 1018.9 |
| 20260503040304 | 64 | 8 | 0.0 | 0.0 | 0.00 | 0.00 | 0.00 | 73 | 1018.8 |
| 20260503040203 | 64 | 8 | 0.0 | 0.0 | 0.00 | 0.00 | 0.00 | 73 | 1018.8 |
| 20260503040104 | 64 | 8 | 0.0 | 0.0 | 0.00 | 0.00 | 0.00 | 73 | 1018.7 |
| 20260503040004 | 64 | 8 | 0.0 | 0.0 | 0.00 | 0.00 | 0.00 | 73 | 1018.7 |
| 20260503035902 | 64 | 8 | 0.0 | 0.0 | 0.00 | 0.00 | 0.00 | 73 | 1018.7 |
| 20260503035803 | 64 | 8 | 0.0 | 0.0 | 0.00 | 0.00 | 0.00 | 72 | 1018.8 |
| 20260503035703 | 64 | 8 | 0.0 | 0.0 | 0.00 | 0.00 | 0.00 | 73 | 1018.7 |
| 20260503035603 | 64 | 8 | 0.0 | 0.0 | 0.00 | 0.00 | 0.00 | 72 | 1018.8 |
| 20260503035504 | 64 | 8 | 0.0 | 0.0 | 0.00 | 0.00 | 0.00 | 72 | 1018.7 |
| 20260503035405 | 64 | 8 | 0.0 | 0.0 | 0.00 | 0.00 | 0.00 | 72 | 1018.7 |
| 20260503035304 | 64 | 8 | 0.0 | 0.0 | 0.00 | 0.00 | 0.00 | 72 | 1018.7 |
| 20260503035202 | 64 | 8 | 0.0 | 0.0 | 0.00 | 0.00 | 0.00 | 72 | 1018.7 |
| 20260503035103 | 64 | 8 | 0.0 | 0.0 | 0.00 | 0.00 | 0.00 | 73 | 1018.6 |
| 20260503035003 | 64 | 8 | 0.0 | 0.0 | 0.00 | 0.00 | 0.00 | 73 | 1018.5 |
| 20260503034903 | 64 | 8 | 0.0 | 0.0 | 0.00 | 0.00 | 0.00 | 73 | 1018.6 |
| 20260503034804 | 64 | 8 | 0.0 | 0.0 | 0.00 | 0.00 | 0.00 | 73 | 1018.6 |
| 20260503034702 | 64 | 8 | 0.0 | 0.0 | 0.00 | 0.00 | 0.00 | 73 | 1018.5 |
| 20260503034602 | 63 | 8 | 0.0 | 0.0 | 0.00 | 0.00 | 0.00 | 73 | 1018.4 |
| 20260503034501 | 63 | 8 | 0.0 | 0.0 | 0.00 | 0.00 | 0.00 | 74 | 1018.5 |
| 20260503034403 | 63 | 8 | 0.0 | 0.0 | 0.00 | 0.00 | 0.00 | 74 | 1018.4 |
| 20260503034302 | 63 | 8 | 0.0 | 0.0 | 0.00 | 0.00 | 0.00 | 75 | 1018.4 |
| 20260503034203 | 63 | 8 | 0.0 | 0.9 | 0.00 | 0.00 | 0.00 | 76 | 1018.4 |
| 20260503034103 | 63 | 8 | 0.0 | 1.7 | 0.00 | 0.00 | 0.00 | 75 | 1018.4 |
| 20260503034004 | 63 | 8 | 0.0 | 1.7 | 0.00 | 0.00 | 0.00 | 75 | 1018.4 |
| 20260503033902 | 63 | 8 | 0.0 | 1.7 | 0.00 | 0.00 | 0.00 | 75 | 1018.4 |
| 20260503033802 | 63 | 8 | 0.0 | 1.7 | 0.00 | 0.00 | 0.00 | 75 | 1018.3 |
| 20260503033702 | 63 | 8 | 0.0 | 1.7 | 0.00 | 0.00 | 0.00 | 75 | 1018.4 |
| 20260503033603 | 63 | 8 | 0.0 | 1.7 | 0.00 | 0.00 | 0.00 | 76 | 1018.4 |
| 20260503033502 | 63 | 8 | 0.0 | 1.7 | 0.00 | 0.00 | 0.00 | 76 | 1018.4 |
| 20260503033402 | 63 | 8 | 0.0 | 1.7 | 0.00 | 0.00 | 0.00 | 75 | 1018.3 |
| 20260503033302 | 63 | 8 | 0.0 | 1.7 | 0.00 | 0.00 | 0.00 | 75 | 1018.3 |
| 20260503033202 | 63 | 8 | 0.9 | 1.7 | 0.00 | 0.00 | 0.00 | 75 | 1018.3 |
| 20260503033102 | 63 | 8 | 0.9 | 1.7 | 0.00 | 0.00 | 0.00 | 76 | 1018.2 |
| 20260503033004 | 63 | 8 | 0.9 | 1.7 | 0.00 | 0.00 | 0.00 | 76 | 1018.2 |
| 20260503032902 | 63 | 8 | 0.9 | 1.7 | 0.00 | 0.00 | 0.00 | 76 | 1018.2 |
| 20260503032802 | 63 | 8 | 0.9 | 1.7 | 0.00 | 0.00 | 0.00 | 76 | 1018.2 |
| 20260503032704 | 63 | 8 | 0.9 | 1.7 | 0.00 | 0.00 | 0.00 | 76 | 1018.2 |
| 20260503032603 | 63 | 8 | 1.7 | 1.7 | 0.00 | 0.00 | 0.00 | 76 | 1018.2 |
| 20260503032503 | 63 | 8 | 1.7 | 1.7 | 0.00 | 0.00 | 0.00 | 76 | 1018.2 |
| 20260503032403 | 63 | 8 | 1.7 | 1.7 | 0.00 | 0.00 | 0.00 | 75 | 1018.2 |
| 20260503032304 | 63 | 8 | 1.7 | 1.7 | 0.00 | 0.00 | 0.00 | 75 | 1018.1 |
| 20260503032202 | 63 | 8 | 0.9 | 1.7 | 0.00 | 0.00 | 0.00 | 75 | 1018.2 |
| 20260503032102 | 64 | 8 | 0.9 | 1.7 | 0.00 | 0.00 | 0.00 | 75 | 1018.2 |
| 20260503032004 | 64 | 8 | 1.7 | 1.7 | 0.00 | 0.00 | 0.00 | 75 | 1018.1 |
| 20260503031903 | 64 | 8 | 0.9 | 1.7 | 0.00 | 0.00 | 0.00 | 75 | 1018.2 |
| 20260503031803 | 64 | 8 | 0.0 | 1.7 | 0.00 | 0.00 | 0.00 | 75 | 1018.2 |
| 20260503031703 | 64 | 8 | 0.0 | 0.0 | 0.00 | 0.00 | 0.00 | 75 | 1018.2 |
| 20260503031603 | 64 | 8 | 0.0 | 0.0 | 0.00 | 0.00 | 0.00 | 75 | 1018.2 |
| 20260503031503 | 64 | 8 | 0.0 | 0.0 | 0.00 | 0.00 | 0.00 | 74 | 1018.1 |
| 20260503031402 | 64 | 8 | 0.0 | 0.0 | 0.00 | 0.00 | 0.00 | 74 | 1018.1 |
| 20260503031304 | 64 | 8 | 0.0 | 0.0 | 0.00 | 0.00 | 0.00 | 74 | 1018.1 |
| 20260503031159 | 64 | 8 | 0.0 | 0.0 | 0.00 | 0.00 | 0.00 | 74 | 1018.2 |
| 20260503031059 | 64 | 8 | 0.0 | 0.0 | 0.00 | 0.00 | 0.00 | 74 | 1018.1 |
| 20260503030957 | 64 | 8 | 0.0 | 0.9 | 0.00 | 0.00 | 0.00 | 74 | 1018.1 |
| 20260503030858 | 64 | 8 | 0.0 | 1.7 | 0.00 | 0.00 | 0.00 | 74 | 1018.1 |
| 20260503030755 | 64 | 8 | 0.0 | 1.7 | 0.00 | 0.00 | 0.00 | 74 | 1018.1 |
| 20260503030654 | 64 | 8 | 0.0 | 1.7 | 0.00 | 0.01 | 0.00 | 75 | 1018.1 |
| 20260503030553 | 64 | 8 | 0.0 | 1.7 | 0.00 | 0.01 | 0.00 | 75 | 1018.1 |
| 20260503030451 | 64 | 8 | 0.0 | 1.7 | 0.00 | 0.01 | 0.00 | 75 | 1018.1 |
| 20260503030349 | 64 | 8 | 0.0 | 1.7 | 0.00 | 0.01 | 0.00 | 75 | 1018.2 |
| 20260503030248 | 64 | 8 | 0.0 | 1.7 | 0.00 | 0.01 | 0.00 | 75 | 1018.2 |
| 20260503030147 | 64 | 8 | 0.0 | 1.7 | 0.00 | 0.01 | 0.00 | 74 | 1018.2 |
| 20260503030045 | 64 | 8 | 0.9 | 1.7 | 0.00 | 0.01 | 0.00 | 73 | 1018.2 |
| 20260503025944 | 64 | 8 | 0.9 | 1.7 | 0.00 | 0.01 | 0.00 | 73 | 1018.2 |
| 20260503025843 | 64 | 8 | 0.9 | 1.7 | 0.00 | 0.01 | 0.00 | 73 | 1018.2 |
| 20260503025815 | 64 | 7 | 0.9 | 1.7 | 0.00 | 0.01 | 0.00 | 73 | 1018.2 |
| 20260503025645 | 64 | 7 | 0.0 | 1.7 | 0.00 | 0.01 | 0.00 | 73 | 1018.2 |
| 20260503025545 | 64 | 7 | 0.0 | 1.7 | 0.00 | 0.01 | 0.00 | 73 | 1018.2 |
| 20260503025444 | 64 | 7 | 0.0 | 1.7 | 0.00 | 0.01 | 0.00 | 73 | 1018.1 |
| 20260503025344 | 64 | 7 | 0.0 | 1.7 | 0.00 | 0.01 | 0.00 | 73 | 1018.2 |
| 20260503025243 | 64 | 7 | 0.0 | 1.7 | 0.00 | 0.01 | 0.00 | 73 | 1018.1 |
| 20260503025143 | 64 | 7 | 0.0 | 1.7 | 0.00 | 0.01 | 0.00 | 73 | 1018.1 |
| 20260503025043 | 64 | 7 | 0.9 | 1.7 | 0.00 | 0.01 | 0.00 | 73 | 1018.1 |
| 20260503024945 | 64 | 7 | 0.9 | 1.7 | 0.00 | 0.01 | 0.00 | 73 | 1018.2 |
| 20260503024843 | 64 | 7 | 0.9 | 1.7 | 0.00 | 0.01 | 0.00 | 73 | 1018.1 |
| 20260503024744 | 64 | 7 | 0.9 | 1.7 | 0.00 | 0.01 | 0.00 | 73 | 1018.1 |
| 20260503024644 | 64 | 7 | 1.7 | 1.7 | 0.00 | 0.01 | 0.00 | 72 | 1018.1 |
| 20260503024543 | 64 | 7 | 0.9 | 1.7 | 0.00 | 0.01 | 0.00 | 72 | 1018.1 |
| 20260503024444 | 65 | 7 | 0.9 | 1.7 | 0.00 | 0.01 | 0.00 | 72 | 1018.1 |
| 20260503024345 | 65 | 7 | 0.9 | 1.7 | 0.00 | 0.01 | 0.00 | 72 | 1018.1 |
| 20260503024244 | 65 | 8 | 0.9 | 1.7 | 0.00 | 0.01 | 0.00 | 72 | 1018.1 |
| 20260503024143 | 65 | 8 | 0.9 | 1.7 | 0.00 | 0.01 | 0.00 | 72 | 1018.1 |
| 20260503024043 | 65 | 8 | 0.9 | 1.7 | 0.00 | 0.01 | 0.00 | 70 | 1018.1 |
| 20260503023944 | 65 | 8 | 0.0 | 1.7 | 0.00 | 0.01 | 0.00 | 70 | 1018.1 |
| 20260503023844 | 65 | 8 | 0.0 | 1.7 | 0.00 | 0.01 | 0.00 | 70 | 1018.1 |
| 20260503023743 | 65 | 8 | 0.9 | 1.7 | 0.00 | 0.01 | 0.00 | 70 | 1018.1 |
| 20260503023646 | 66 | 8 | 0.9 | 1.7 | 0.00 | 0.01 | 0.00 | 69 | 1018.0 |
| 20260503023544 | 66 | 8 | 1.7 | 1.7 | 0.00 | 0.01 | 0.00 | 69 | 1018.1 |
| 20260503023442 | 66 | 8 | 0.9 | 1.7 | 0.00 | 0.01 | 0.00 | 70 | 1018.1 |
| 20260503023343 | 66 | 8 | 0.9 | 1.7 | 0.00 | 0.01 | 0.00 | 70 | 1018.0 |
| 20260503023245 | 66 | 8 | 0.9 | 1.7 | 0.00 | 0.02 | 0.00 | 69 | 1018.0 |
| 20260503023144 | 66 | 8 | 0.9 | 1.7 | 0.00 | 0.02 | 0.00 | 69 | 1018.0 |
| 20260503023043 | 66 | 8 | 0.9 | 1.7 | 0.00 | 0.02 | 0.00 | 69 | 1018.0 |
| 20260503022944 | 66 | 8 | 0.9 | 2.6 | 0.00 | 0.02 | 0.00 | 69 | 1018.0 |
| 20260503022844 | 66 | 8 | 0.9 | 2.6 | 0.00 | 0.02 | 0.00 | 68 | 1017.9 |
| 20260503022743 | 66 | 8 | 0.9 | 2.6 | 0.00 | 0.02 | 0.00 | 68 | 1017.9 |
| 20260503022644 | 66 | 8 | 0.9 | 2.6 | 0.00 | 0.02 | 0.00 | 69 | 1017.8 |
| 20260503022545 | 66 | 8 | 0.9 | 2.6 | 0.00 | 0.02 | 0.00 | 68 | 1017.9 |
| 20260503022444 | 65 | 8 | 0.9 | 2.6 | 0.00 | 0.02 | 0.00 | 69 | 1017.8 |
| 20260503022343 | 66 | 8 | 0.9 | 2.6 | 0.00 | 0.02 | 0.00 | 69 | 1017.8 |
| 20260503022243 | 66 | 8 | 1.7 | 2.6 | 0.00 | 0.02 | 0.00 | 69 | 1017.9 |
| 20260503022143 | 66 | 8 | 1.7 | 2.6 | 0.00 | 0.02 | 0.00 | 68 | 1017.9 |
| 20260503022044 | 66 | 8 | 1.7 | 2.6 | 0.00 | 0.02 | 0.00 | 68 | 1017.9 |
| 20260503021943 | 66 | 8 | 0.9 | 1.7 | 0.00 | 0.02 | 0.00 | 70 | 1017.8 |
| 20260503021842 | 66 | 8 | 0.0 | 0.0 | 0.00 | 0.02 | 0.00 | 69 | 1017.9 |
| 20260503021744 | 66 | 8 | 0.0 | 0.0 | 0.00 | 0.02 | 0.00 | 69 | 1017.9 |
| 20260503021642 | 66 | 8 | 0.0 | 0.0 | 0.00 | 0.02 | 0.00 | 69 | 1017.9 |
| 20260503021544 | 66 | 8 | 0.0 | 0.0 | 0.00 | 0.02 | 0.00 | 68 | 1017.9 |
| 20260503021442 | 66 | 8 | 0.0 | 0.0 | 0.00 | 0.02 | 0.00 | 68 | 1017.8 |
| 20260503021343 | 66 | 8 | 0.0 | 0.0 | 0.00 | 0.02 | 0.00 | 68 | 1017.8 |
| 20260503021242 | 66 | 8 | 0.0 | 0.0 | 0.00 | 0.03 | 0.00 | 68 | 1018.0 |
| 20260503021143 | 66 | 8 | 0.0 | 0.0 | 0.00 | 0.03 | 0.00 | 68 | 1017.9 |
| 20260503021044 | 67 | 8 | 0.0 | 0.0 | 0.00 | 0.03 | 0.00 | 69 | 1017.9 |
| 20260503020942 | 67 | 8 | 0.0 | 0.0 | 0.00 | 0.03 | 0.00 | 68 | 1017.9 |
| 20260503020843 | 67 | 8 | 0.0 | 0.0 | 0.00 | 0.03 | 0.00 | 68 | 1017.9 |
| 20260503020743 | 67 | 8 | 0.0 | 0.0 | 0.00 | 0.03 | 0.00 | 68 | 1017.8 |
| 20260503020644 | 67 | 8 | 0.0 | 0.0 | 0.00 | 0.03 | 0.00 | 68 | 1017.9 |
| 20260503020542 | 67 | 8 | 0.0 | 0.9 | 0.00 | 0.03 | 0.00 | 68 | 1017.8 |
| 20260503020444 | 67 | 8 | 0.0 | 0.9 | 0.00 | 0.03 | 0.00 | 68 | 1017.8 |
| 20260503020342 | 67 | 8 | 0.0 | 0.9 | 0.00 | 0.03 | 0.00 | 67 | 1017.8 |
| 20260503020243 | 67 | 8 | 0.0 | 1.7 | 0.00 | 0.03 | 0.00 | 65 | 1017.7 |
| 20260503020143 | 67 | 8 | 0.0 | 1.7 | 0.00 | 0.03 | 0.00 | 66 | 1017.8 |
| 20260503020044 | 67 | 8 | 0.0 | 1.7 | 0.00 | 0.03 | 0.00 | 66 | 1017.7 |
| 20260503015942 | 67 | 8 | 0.0 | 1.7 | 0.00 | 0.03 | 0.00 | 66 | 1017.7 |
| 20260503015843 | 67 | 8 | 0.0 | 1.7 | 0.00 | 0.03 | 0.00 | 65 | 1017.7 |
| 20260503015743 | 68 | 8 | 0.0 | 1.7 | 0.00 | 0.03 | 0.00 | 66 | 1017.7 |
| 20260503015643 | 68 | 8 | 0.0 | 2.6 | 0.00 | 0.03 | 0.00 | 65 | 1017.7 |
| 20260503015542 | 68 | 8 | 0.0 | 2.6 | 0.00 | 0.03 | 0.00 | 65 | 1017.6 |
| 20260503015444 | 68 | 8 | 0.0 | 2.6 | 0.00 | 0.03 | 0.00 | 64 | 1017.7 |
| 20260503015342 | 68 | 8 | 0.0 | 2.6 | 0.00 | 0.03 | 0.00 | 63 | 1017.6 |
| 20260503015244 | 68 | 8 | 0.0 | 2.6 | 0.00 | 0.03 | 0.00 | 63 | 1017.6 |
| 20260503015143 | 68 | 8 | 0.9 | 2.6 | 0.00 | 0.03 | 0.00 | 62 | 1017.5 |
| 20260503015042 | 68 | 8 | 1.7 | 2.6 | 0.00 | 0.03 | 0.00 | 63 | 1017.5 |
| 20260503014942 | 68 | 8 | 0.9 | 2.6 | 0.00 | 0.04 | 0.00 | 61 | 1017.5 |
| 20260503014843 | 69 | 8 | 0.9 | 2.6 | 0.00 | 0.04 | 0.00 | 61 | 1017.5 |
| 20260503014743 | 69 | 8 | 1.7 | 2.6 | 0.00 | 0.04 | 0.00 | 61 | 1017.5 |
| 20260503014641 | 69 | 8 | 1.7 | 3.5 | 0.00 | 0.04 | 0.00 | 60 | 1017.4 |
| 20260503014542 | 69 | 8 | 1.7 | 3.5 | 0.00 | 0.04 | 0.00 | 60 | 1017.4 |
| 20260503014443 | 69 | 8 | 1.7 | 3.5 | 0.00 | 0.04 | 0.00 | 59 | 1017.4 |
| 20260503014342 | 69 | 7 | 1.7 | 3.5 | 0.00 | 0.04 | 0.00 | 59 | 1017.4 |
| 20260503014242 | 69 | 7 | 1.7 | 3.5 | 0.00 | 0.04 | 0.00 | 59 | 1017.4 |
| 20260503014141 | 69 | 7 | 1.7 | 3.5 | 0.00 | 0.04 | 0.00 | 59 | 1017.3 |
| 20260503014039 | 69 | 7 | 1.7 | 3.5 | 0.00 | 0.04 | 0.00 | 59 | 1017.3 |
| 20260503013938 | 69 | 7 | 1.7 | 3.5 | 0.00 | 0.04 | 0.00 | 59 | 1017.3 |
| 20260503013835 | 69 | 7 | 2.6 | 3.5 | 0.00 | 0.04 | 0.00 | 59 | 1017.3 |
| 20260503013734 | 69 | 7 | 2.6 | 3.5 | 0.00 | 0.04 | 0.00 | 59 | 1017.2 |
| 20260503013634 | 69 | 0 | 1.7 | 2.6 | 0.00 | 0.05 | 0.00 | 60 | 1017.3 |
| 20260503013530 | 69 | 0 | 1.7 | 2.6 | 0.00 | 0.05 | 0.00 | 61 | 1017.2 |
| 20260503013431 | 69 | 0 | 1.7 | 2.6 | 0.00 | 0.05 | 0.00 | 60 | 1017.2 |
| 20260503013331 | 69 | 0 | 1.7 | 2.6 | 0.00 | 0.06 | 0.00 | 60 | 1017.3 |
| 20260503013231 | 69 | 0 | 1.7 | 2.6 | 0.00 | 0.06 | 0.00 | 60 | 1017.3 |
| 20260503013131 | 69 | 0 | 0.9 | 2.6 | 0.00 | 0.06 | 0.00 | 60 | 1017.2 |
| 20260503013032 | 69 | 0 | 0.9 | 2.6 | 0.00 | 0.06 | 0.00 | 59 | 1017.2 |
| 20260503012931 | 69 | 0 | 0.9 | 2.6 | 0.00 | 0.06 | 0.00 | 59 | 1017.1 |
| 20260503012832 | 69 | 0 | 0.9 | 2.6 | 0.00 | 0.06 | 0.00 | 59 | 1017.2 |
| 20260503012730 | 69 | 0 | 1.7 | 2.6 | 0.00 | 0.07 | 0.00 | 58 | 1017.2 |
| 20260503012632 | 69 | 0 | 1.7 | 2.6 | 0.00 | 0.07 | 0.00 | 57 | 1017.2 |
| 20260503012531 | 70 | 0 | 1.7 | 2.6 | 0.00 | 0.07 | 0.00 | 56 | 1017.2 |
| 20260503012432 | 70 | 0 | 1.7 | 2.6 | 0.00 | 0.07 | 0.00 | 57 | 1017.1 |
| 20260503012333 | 70 | 0 | 1.7 | 2.6 | 0.00 | 0.08 | 0.00 | 56 | 1017.1 |
| 20260503012232 | 70 | 0 | 1.7 | 2.6 | 0.00 | 0.08 | 0.00 | 57 | 1017.1 |
| 20260503012131 | 70 | 0 | 1.7 | 2.6 | 0.00 | 0.08 | 0.00 | 57 | 1017.1 |
| 20260503012031 | 70 | 0 | 1.7 | 3.5 | 0.00 | 0.08 | 0.00 | 56 | 1017.1 |
| 20260503011932 | 70 | 0 | 1.7 | 3.5 | 0.00 | 0.08 | 0.00 | 56 | 1017.1 |
| 20260503011832 | 70 | 0 | 1.7 | 3.5 | 0.00 | 0.09 | 0.00 | 56 | 1017.1 |
| 20260503011731 | 70 | 0 | 1.7 | 3.5 | 0.00 | 0.09 | 0.00 | 56 | 1017.2 |
| 20260503011633 | 70 | 0 | 1.7 | 3.5 | 0.00 | 0.09 | 0.00 | 56 | 1017.2 |
| 20260503011532 | 70 | 0 | 1.7 | 3.5 | 0.00 | 0.09 | 0.00 | 56 | 1017.2 |
| 20260503011432 | 70 | 0 | 1.7 | 3.5 | 0.00 | 0.09 | 0.00 | 55 | 1017.2 |
| 20260503011307 | 70 | 0 | 1.7 | 3.5 | 0.00 | 0.09 | 0.00 | 55 | 1017.2 |
| 20260503011205 | 70 | 0 | 2.6 | 3.5 | 0.00 | 0.09 | 0.00 | 55 | 1017.1 |
| 20260503011104 | 70 | 0 | 2.6 | 4.3 | 0.00 | 0.09 | 0.00 | 54 | 1017.2 |
| 20260503011004 | 70 | 0 | 1.7 | 4.3 | 0.00 | 0.09 | 0.00 | 54 | 1017.2 |
| 20260503010903 | 71 | 0 | 1.7 | 4.3 | 0.00 | 0.09 | 0.00 | 54 | 1017.2 |
| 20260503010804 | 71 | 6 | 1.7 | 4.3 | 0.00 | 0.09 | 0.00 | 54 | 1017.1 |
| 20260503010703 | 71 | 4 | 2.6 | 4.3 | 0.00 | 0.09 | 0.00 | 54 | 1017.1 |
| 20260503010602 | 71 | 10 | 1.7 | 5.2 | 0.00 | 0.09 | 0.00 | 54 | 1017.1 |
| 20260503010502 | 71 | 28 | 1.7 | 5.2 | 0.00 | 0.10 | 0.00 | 54 | 1017.2 |
| 20260503010402 | 71 | 28 | 1.7 | 5.2 | 0.00 | 0.10 | 0.00 | 53 | 1017.1 |
| 20260503010302 | 71 | 28 | 2.6 | 5.2 | 0.00 | 0.10 | 0.00 | 53 | 1017.0 |
| 20260503010202 | 71 | 28 | 2.6 | 5.2 | 0.00 | 0.10 | 0.00 | 53 | 1017.0 |
| 20260503010002 | 71 | 18 | 2.6 | 5.2 | 0.00 | 0.10 | 0.00 | 53 | 1017.0 |
| 20260503005856 | 71 | 18 | 2.6 | 5.2 | 0.00 | 0.10 | 0.00 | 53 | 1017.0 |
| 20260503005755 | 71 | 21 | 3.5 | 5.2 | 0.00 | 0.10 | 0.00 | 53 | 1017.0 |
| 20260503005654 | 71 | 11 | 3.5 | 5.2 | 0.00 | 0.10 | 0.00 | 53 | 1017.0 |
| 20260503005552 | 71 | 18 | 3.5 | 5.2 | 0.00 | 0.10 | 0.00 | 53 | 1016.9 |
| 20260503005451 | 71 | 18 | 3.5 | 5.2 | 0.00 | 0.11 | 0.00 | 53 | 1017.0 |
| 20260503005350 | 71 | 0 | 3.5 | 5.2 | 0.00 | 0.11 | 0.00 | 53 | 1016.9 |
| 20260503005246 | 71 | 32 | 3.5 | 5.2 | 0.00 | 0.11 | 0.00 | 53 | 1016.9 |
| 20260503005142 | 71 | 13 | 2.6 | 4.3 | 0.00 | 0.12 | 0.00 | 53 | 1016.9 |
| 20260503005042 | 71 | 34 | 2.6 | 4.3 | 0.00 | 0.12 | 0.00 | 53 | 1016.9 |
| 20260503004941 | 71 | 32 | 2.6 | 4.3 | 0.00 | 0.12 | 0.00 | 53 | 1016.9 |
| 20260503004842 | 71 | 27 | 1.7 | 5.2 | 0.00 | 0.13 | 0.00 | 53 | 1016.8 |
| 20260503004741 | 71 | 27 | 2.6 | 6.1 | 0.00 | 0.13 | 0.00 | 53 | 1016.8 |
| 20260503004642 | 71 | 27 | 2.6 | 6.1 | 0.00 | 0.14 | 0.00 | 52 | 1016.8 |
| 20260503004541 | 72 | 27 | 2.6 | 6.1 | 0.00 | 0.14 | 0.00 | 52 | 1016.9 |
| 20260503004440 | 72 | 16 | 2.6 | 6.1 | 0.00 | 0.14 | 0.00 | 52 | 1016.8 |
| 20260503004341 | 72 | 14 | 2.6 | 6.1 | 0.00 | 0.14 | 0.00 | 52 | 1016.8 |
| 20260503004241 | 72 | 21 | 2.6 | 6.1 | 0.00 | 0.15 | 0.00 | 52 | 1016.8 |
| 20260503004142 | 72 | 18 | 2.6 | 8.7 | 0.00 | 0.15 | 0.00 | 51 | 1016.8 |
| 20260503004040 | 72 | 21 | 3.5 | 10.4 | 0.00 | 0.16 | 0.00 | 51 | 1016.7 |
| 20260503003940 | 72 | 0 | 3.5 | 10.4 | 0.00 | 0.16 | 0.00 | 51 | 1016.7 |
| 20260503003841 | 72 | 14 | 3.5 | 10.4 | 0.00 | 0.17 | 0.00 | 51 | 1016.7 |
| 20260503003740 | 72 | 13 | 3.5 | 10.4 | 0.00 | 0.17 | 0.00 | 51 | 1016.7 |
| 20260503003640 | 72 | 3 | 3.5 | 10.4 | 0.00 | 0.17 | 0.00 | 51 | 1016.7 |
| 20260503003540 | 72 | 10 | 3.5 | 10.4 | 0.00 | 0.17 | 0.00 | 51 | 1016.7 |
| 20260503003441 | 73 | 0 | 3.5 | 10.4 | 0.00 | 0.18 | 0.00 | 51 | 1016.7 |
| 20260503003341 | 73 | 4 | 5.2 | 10.4 | 0.00 | 0.18 | 0.00 | 51 | 1016.7 |
| 20260503003240 | 73 | 13 | 6.1 | 10.4 | 0.00 | 0.18 | 0.00 | 50 | 1016.6 |
| 20260503003142 | 73 | 16 | 5.2 | 10.4 | 0.00 | 0.18 | 0.00 | 51 | 1016.7 |
| 20260503003040 | 73 | 7 | 4.3 | 8.7 | 0.00 | 0.18 | 0.00 | 51 | 1016.6 |
| 20260503002940 | 73 | 190 | 4.3 | 9.6 | 0.00 | 0.18 | 0.00 | 51 | 1016.7 |
| 20260503002841 | 73 | 13 | 3.5 | 9.6 | 0.00 | 0.19 | 0.00 | 51 | 1016.6 |
| 20260503002741 | 73 | 13 | 2.6 | 9.6 | 0.00 | 0.19 | 0.00 | 51 | 1016.5 |
| 20260503002641 | 73 | 14 | 2.6 | 9.6 | 0.00 | 0.19 | 0.00 | 51 | 1016.6 |
| 20260503002541 | 73 | 16 | 3.5 | 9.6 | 0.00 | 0.19 | 0.00 | 50 | 1016.7 |
| 20260503002441 | 73 | 0 | 5.2 | 9.6 | 0.00 | 0.19 | 0.00 | 50 | 1016.6 |
| 20260503002340 | 73 | 32 | 6.1 | 9.6 | 0.00 | 0.19 | 0.00 | 49 | 1016.6 |
| 20260503002239 | 73 | 28 | 5.2 | 9.6 | 0.00 | 0.20 | 0.00 | 49 | 1016.6 |
| 20260503002140 | 73 | 16 | 6.1 | 9.6 | 0.00 | 0.20 | 0.00 | 49 | 1016.6 |
| 20260503002042 | 73 | 31 | 7.0 | 9.6 | 0.00 | 0.20 | 0.00 | 49 | 1016.6 |
| 20260503001940 | 73 | 28 | 5.2 | 8.7 | 0.00 | 0.20 | 0.00 | 49 | 1016.6 |
| 20260503001841 | 73 | 34 | 4.3 | 7.8 | 0.00 | 0.20 | 0.00 | 49 | 1016.6 |
| 20260503001741 | 73 | 27 | 3.5 | 8.7 | 0.00 | 0.20 | 0.00 | 49 | 1016.6 |
| 20260503001641 | 73 | 0 | 4.3 | 8.7 | 0.00 | 0.20 | 0.00 | 49 | 1016.6 |
| 20260503001541 | 73 | 20 | 5.2 | 8.7 | 0.00 | 0.20 | 0.00 | 49 | 1016.6 |
| 20260503001440 | 73 | 10 | 5.2 | 8.7 | 0.00 | 0.20 | 0.00 | 49 | 1016.6 |
| 20260503001340 | 74 | 44 | 4.3 | 11.3 | 0.00 | 0.21 | 0.00 | 49 | 1016.5 |
| 20260503001239 | 74 | 45 | 3.5 | 12.2 | 0.00 | 0.21 | 0.00 | 49 | 1016.5 |
| 20260503001140 | 74 | 7 | 2.6 | 12.2 | 0.00 | 0.21 | 0.00 | 49 | 1016.5 |
| 20260503001042 | 74 | 18 | 3.5 | 12.2 | 0.00 | 0.21 | 0.00 | 49 | 1016.5 |
| 20260503000940 | 74 | 0 | 4.3 | 12.2 | 0.00 | 0.21 | 0.00 | 48 | 1016.5 |
| 20260503000839 | 74 | 17 | 5.2 | 12.2 | 0.00 | 0.22 | 0.00 | 48 | 1016.5 |
| 20260503000739 | 74 | 17 | 4.3 | 12.2 | 0.00 | 0.22 | 0.00 | 48 | 1016.4 |
| 20260503000640 | 74 | 0 | 4.3 | 12.2 | 0.00 | 0.22 | 0.00 | 48 | 1016.4 |
| 20260503000539 | 74 | 18 | 6.1 | 12.2 | 0.00 | 0.23 | 0.00 | 48 | 1016.4 |
| 20260503000440 | 74 | 16 | 8.7 | 12.2 | 0.00 | 0.23 | 0.00 | 47 | 1016.4 |
| 20260503000341 | 74 | 32 | 7.0 | 12.2 | 0.00 | 0.23 | 0.00 | 48 | 1016.5 |
| 20260503000240 | 74 | 38 | 4.3 | 7.8 | 0.00 | 0.23 | 0.00 | 49 | 1016.4 |
| 20260503000140 | 74 | 14 | 4.3 | 7.8 | 0.00 | 0.23 | 0.00 | 49 | 1016.4 |
| 20260503000041 | 74 | 28 | 3.5 | 7.8 | 0.00 | 0.23 | 0.00 | 49 | 1016.4 |
| 20260502235940 | 74 | 28 | 3.5 | 7.8 | 0.00 | 0.24 | 0.00 | 49 | 1016.4 |
| 20260502235839 | 74 | 35 | 4.3 | 9.6 | 0.00 | 0.24 | 0.00 | 48 | 1016.3 |
| 20260502235739 | 74 | 38 | 5.2 | 9.6 | 0.00 | 0.24 | 0.00 | 48 | 1016.3 |
| 20260502235641 | 74 | 30 | 4.3 | 9.6 | 0.00 | 0.24 | 0.00 | 49 | 1016.4 |
| 20260502235540 | 74 | 13 | 3.5 | 10.4 | 0.00 | 0.24 | 0.00 | 48 | 1016.4 |
| 20260502235439 | 74 | 44 | 2.6 | 10.4 | 0.00 | 0.24 | 0.00 | 49 | 1016.3 |
| 20260502235339 | 74 | 18 | 4.3 | 10.4 | 0.00 | 0.24 | 0.00 | 48 | 1016.3 |
| 20260502235240 | 74 | 20 | 5.2 | 10.4 | 0.00 | 0.24 | 0.00 | 48 | 1016.4 |
| 20260502235140 | 74 | 39 | 5.2 | 10.4 | 0.00 | 0.24 | 0.00 | 48 | 1016.4 |
| 20260502235040 | 74 | 41 | 5.2 | 10.4 | 0.00 | 0.24 | 0.00 | 47 | 1016.3 |
| 20260502234940 | 74 | 35 | 5.2 | 10.4 | 0.00 | 0.24 | 0.00 | 47 | 1016.3 |
| 20260502234839 | 74 | 21 | 5.2 | 10.4 | 0.00 | 0.24 | 0.00 | 48 | 1016.4 |
| 20260502234739 | 74 | 0 | 6.1 | 10.4 | 0.00 | 0.24 | 0.00 | 47 | 1016.3 |
| 20260502234639 | 75 | 45 | 7.0 | 10.4 | 0.00 | 0.24 | 0.00 | 46 | 1016.4 |
| 20260502234540 | 75 | 44 | 5.2 | 10.4 | 0.00 | 0.24 | 0.00 | 46 | 1016.4 |
| 20260502234439 | 75 | 0 | 5.2 | 10.4 | 0.00 | 0.24 | 0.00 | 46 | 1016.3 |
| 20260502234339 | 75 | 0 | 5.2 | 10.4 | 0.00 | 0.24 | 0.00 | 46 | 1016.3 |
| 20260502234241 | 75 | 31 | 4.3 | 10.4 | 0.00 | 0.24 | 0.00 | 47 | 1016.4 |
| 20260502234139 | 75 | 39 | 5.2 | 10.4 | 0.00 | 0.24 | 0.00 | 47 | 1016.3 |
| 20260502234038 | 75 | 357 | 5.2 | 10.4 | 0.00 | 0.24 | 0.00 | 47 | 1016.4 |
| 20260502233940 | 75 | 25 | 5.2 | 10.4 | 0.00 | 0.24 | 0.00 | 46 | 1016.3 |
| 20260502233839 | 75 | 327 | 5.2 | 9.6 | 0.00 | 0.24 | 0.00 | 46 | 1016.3 |
| 20260502233740 | 75 | 344 | 4.3 | 8.7 | 0.00 | 0.25 | 0.00 | 47 | 1016.3 |
| 20260502233639 | 75 | 0 | 4.3 | 8.7 | 0.00 | 0.25 | 0.00 | 47 | 1016.3 |
| 20260502233541 | 75 | 331 | 5.2 | 8.7 | 0.00 | 0.25 | 0.00 | 46 | 1016.3 |
| 20260502233439 | 75 | 49 | 5.2 | 8.7 | 0.00 | 0.25 | 0.00 | 46 | 1016.3 |
| 20260502233338 | 75 | 1 | 4.3 | 8.7 | 0.00 | 0.25 | 0.00 | 47 | 1016.3 |
| 20260502233239 | 75 | 0 | 4.3 | 8.7 | 0.00 | 0.26 | 0.00 | 47 | 1016.2 |
| 20260502233139 | 75 | 0 | 4.3 | 8.7 | 0.00 | 0.26 | 0.00 | 47 | 1016.3 |
| 20260502233038 | 75 | 0 | 4.3 | 8.7 | 0.00 | 0.26 | 0.00 | 46 | 1016.3 |
| 20260502232940 | 75 | 350 | 4.3 | 7.8 | 0.00 | 0.26 | 0.00 | 46 | 1016.3 |
| 20260502232839 | 75 | 10 | 5.2 | 8.7 | 0.00 | 0.27 | 0.00 | 46 | 1016.3 |
| 20260502232740 | 75 | 28 | 4.3 | 8.7 | 0.00 | 0.31 | 0.00 | 46 | 1016.4 |
| 20260502232638 | 75 | 7 | 4.3 | 10.4 | 0.00 | 0.31 | 0.00 | 46 | 1016.4 |
| 20260502232541 | 75 | 24 | 4.3 | 13.0 | 0.00 | 0.31 | 0.00 | 46 | 1016.4 |
| 20260502232438 | 75 | 0 | 3.5 | 13.0 | 0.00 | 0.31 | 0.00 | 46 | 1016.4 |
| 20260502232338 | 75 | 0 | 3.5 | 13.0 | 0.00 | 0.31 | 0.00 | 46 | 1016.4 |
| 20260502232239 | 75 | 345 | 3.5 | 13.0 | 0.00 | 0.32 | 0.00 | 46 | 1016.4 |
| 20260502232140 | 75 | 23 | 3.5 | 13.0 | 0.00 | 0.32 | 0.00 | 46 | 1016.3 |
| 20260502232038 | 75 | 0 | 5.2 | 13.0 | 0.00 | 0.33 | 0.00 | 46 | 1016.3 |
| 20260502231932 | 75 | 32 | 5.2 | 13.0 | 0.00 | 0.34 | 0.00 | 46 | 1016.3 |
| 20260502231832 | 75 | 25 | 7.0 | 13.0 | 0.00 | 0.34 | 0.00 | 46 | 1016.3 |
| 20260502231731 | 75 | 30 | 6.1 | 13.0 | 0.00 | 0.34 | 0.00 | 45 | 1016.3 |
| 20260502231632 | 76 | 41 | 3.5 | 12.2 | 0.00 | 0.35 | 0.00 | 46 | 1016.3 |
| 20260502231533 | 75 | 14 | 3.5 | 12.2 | 0.00 | 0.35 | 0.00 | 46 | 1016.3 |
| 20260502231431 | 75 | 23 | 5.2 | 12.2 | 0.00 | 0.35 | 0.00 | 46 | 1016.3 |
| 20260502231331 | 76 | 25 | 5.2 | 12.2 | 0.00 | 0.36 | 0.00 | 46 | 1016.3 |
| 20260502231232 | 76 | 52 | 4.3 | 12.2 | 0.00 | 0.36 | 0.00 | 46 | 1016.3 |
| 20260502231131 | 76 | 351 | 6.1 | 12.2 | 0.00 | 0.36 | 0.00 | 46 | 1016.2 |
| 20260502231032 | 76 | 39 | 7.0 | 12.2 | 0.00 | 0.36 | 0.00 | 46 | 1016.2 |
| 20260502230932 | 76 | 47 | 4.3 | 12.2 | 0.00 | 0.36 | 0.00 | 46 | 1016.2 |
| 20260502230832 | 76 | 38 | 4.3 | 11.3 | 0.00 | 0.36 | 0.00 | 46 | 1016.2 |
| 20260502230732 | 76 | 6 | 5.2 | 11.3 | 0.00 | 0.36 | 0.00 | 46 | 1016.2 |
| 20260502230633 | 75 | 347 | 4.3 | 11.3 | 0.00 | 0.36 | 0.00 | 46 | 1016.2 |
| 20260502230531 | 75 | 0 | 5.2 | 13.0 | 0.00 | 0.36 | 0.00 | 46 | 1016.3 |
| 20260502230431 | 75 | 11 | 7.0 | 13.0 | 0.00 | 0.36 | 0.00 | 45 | 1016.2 |
| 20260502230332 | 75 | 51 | 7.8 | 13.0 | 0.00 | 0.36 | 0.00 | 45 | 1016.3 |
| 20260502230232 | 75 | 47 | 7.8 | 13.0 | 0.00 | 0.36 | 0.00 | 46 | 1016.2 |
| 20260502230131 | 75 | 30 | 7.0 | 13.0 | 0.00 | 0.36 | 0.00 | 45 | 1016.3 |
| 20260502230032 | 75 | 47 | 7.0 | 13.0 | 0.00 | 0.36 | 0.00 | 45 | 1016.2 |
| 20260502225932 | 75 | 39 | 6.1 | 13.0 | 0.00 | 0.36 | 0.00 | 44 | 1016.2 |
| 20260502225831 | 76 | 37 | 7.0 | 13.0 | 0.00 | 0.36 | 0.00 | 45 | 1016.2 |
| 20260502225731 | 76 | 16 | 8.7 | 13.0 | 0.00 | 0.36 | 0.00 | 44 | 1016.3 |
| 20260502225633 | 76 | 358 | 6.1 | 13.0 | 0.00 | 0.36 | 0.00 | 45 | 1016.2 |
| 20260502225532 | 76 | 44 | 4.3 | 11.3 | 0.00 | 0.36 | 0.00 | 44 | 1016.2 |
| 20260502225432 | 76 | 338 | 5.2 | 11.3 | 0.00 | 0.36 | 0.00 | 45 | 1016.2 |
| 20260502225331 | 76 | 7 | 5.2 | 11.3 | 0.00 | 0.36 | 0.00 | 45 | 1016.2 |
| 20260502225231 | 76 | 351 | 5.2 | 11.3 | 0.00 | 0.36 | 0.00 | 44 | 1016.2 |
| 20260502225131 | 76 | 6 | 6.1 | 11.3 | 0.00 | 0.36 | 0.00 | 44 | 1016.2 |
| 20260502225031 | 76 | 21 | 6.1 | 11.3 | 0.00 | 0.36 | 0.00 | 45 | 1016.2 |
| 20260502224930 | 76 | 17 | 6.1 | 10.4 | 0.00 | 0.36 | 0.00 | 46 | 1016.1 |
| 20260502224827 | 76 | 30 | 5.2 | 10.4 | 0.00 | 0.36 | 0.00 | 45 | 1016.1 |
| 20260502224725 | 76 | 4 | 5.2 | 10.4 | 0.00 | 0.36 | 0.00 | 44 | 1016.1 |
| 20260502224624 | 76 | 337 | 4.3 | 10.4 | 0.00 | 0.36 | 0.00 | 44 | 1016.1 |
| 20260502224522 | 76 | 3 | 4.3 | 10.4 | 0.00 | 0.36 | 0.00 | 45 | 1016.2 |
| 20260502224421 | 76 | 324 | 5.2 | 10.4 | 0.00 | 0.36 | 0.00 | 45 | 1016.2 |
| 20260502224319 | 76 | 41 | 4.3 | 10.4 | 0.00 | 0.36 | 0.00 | 44 | 1016.2 |
| 20260502224218 | 76 | 30 | 4.3 | 12.2 | 0.00 | 0.36 | 0.00 | 44 | 1016.2 |
| 20260502224116 | 76 | 0 | 5.2 | 12.2 | 0.00 | 0.36 | 0.00 | 45 | 1016.1 |
| 20260502224014 | 76 | 355 | 6.1 | 12.2 | 0.00 | 0.36 | 0.00 | 46 | 1016.1 |
| 20260502223916 | 76 | 14 | 7.0 | 12.2 | 0.00 | 0.36 | 0.00 | 45 | 1016.1 |
| 20260502223813 | 76 | 348 | 6.1 | 12.2 | 0.00 | 0.36 | 0.00 | 45 | 1016.2 |
| 20260502223710 | 76 | 16 | 5.2 | 12.2 | 0.00 | 0.36 | 0.00 | 45 | 1016.2 |
| 20260502223609 | 76 | 38 | 4.3 | 12.2 | 0.00 | 0.36 | 0.00 | 45 | 1016.2 |
| 20260502223508 | 76 | 54 | 3.5 | 12.2 | 0.00 | 0.36 | 0.00 | 45 | 1016.2 |
| 20260502223406 | 76 | 25 | 6.1 | 13.0 | 0.00 | 0.36 | 0.00 | 45 | 1016.2 |
| 20260502223306 | 76 | 0 | 6.1 | 13.0 | 0.00 | 0.36 | 0.00 | 45 | 1016.3 |
| 20260502223202 | 76 | 13 | 5.2 | 14.8 | 0.00 | 0.36 | 0.00 | 45 | 1016.3 |
| 20260502223103 | 76 | 8 | 5.2 | 14.8 | 0.00 | 0.36 | 0.00 | 45 | 1016.3 |
| 20260502223003 | 76 | 4 | 6.1 | 14.8 | 0.00 | 0.36 | 0.00 | 45 | 1016.2 |
| 20260502222902 | 76 | 20 | 7.0 | 14.8 | 0.00 | 0.36 | 0.00 | 45 | 1016.3 |
| 20260502222801 | 76 | 7 | 7.8 | 14.8 | 0.00 | 0.36 | 0.00 | 45 | 1016.3 |
| 20260502222702 | 76 | 28 | 8.7 | 14.8 | 0.00 | 0.36 | 0.00 | 45 | 1016.3 |
| 20260502222603 | 76 | 17 | 9.6 | 14.8 | 0.00 | 0.36 | 0.00 | 44 | 1016.3 |
| 20260502222502 | 76 | 37 | 9.6 | 14.8 | 0.00 | 0.36 | 0.00 | 44 | 1016.4 |
| 20260502222402 | 77 | 24 | 9.6 | 14.8 | 0.00 | 0.36 | 0.00 | 44 | 1016.3 |
| 20260502222305 | 77 | 32 | 8.7 | 14.8 | 0.00 | 0.36 | 0.00 | 44 | 1016.4 |
| 20260502222202 | 77 | 23 | 6.1 | 13.0 | 0.00 | 0.36 | 0.00 | 44 | 1016.3 |
| 20260502222103 | 77 | 39 | 5.2 | 13.0 | 0.00 | 0.36 | 0.00 | 43 | 1016.3 |
| 20260502222002 | 78 | 14 | 4.3 | 7.8 | 0.00 | 0.36 | 0.00 | 43 | 1016.4 |
| 20260502221903 | 78 | 6 | 2.6 | 7.8 | 0.00 | 0.36 | 0.00 | 44 | 1016.4 |
| 20260502221803 | 78 | 0 | 3.5 | 8.7 | 0.00 | 0.36 | 0.00 | 45 | 1016.4 |
| 20260502221703 | 77 | 62 | 2.6 | 8.7 | 0.00 | 0.36 | 0.00 | 45 | 1016.4 |
| 20260502221603 | 78 | 17 | 1.7 | 8.7 | 0.00 | 0.37 | 0.00 | 44 | 1016.3 |
| 20260502221504 | 77 | 14 | 2.6 | 8.7 | 0.00 | 0.37 | 0.00 | 45 | 1016.3 |
| 20260502221402 | 77 | 0 | 2.6 | 8.7 | 0.00 | 0.37 | 0.00 | 46 | 1016.4 |
| 20260502221300 | 77 | 23 | 3.5 | 8.7 | 0.00 | 0.37 | 0.00 | 46 | 1016.4 |
| 20260502221200 | 76 | 343 | 5.2 | 11.3 | 0.00 | 0.37 | 0.00 | 46 | 1016.5 |
| 20260502221100 | 76 | 7 | 4.3 | 12.2 | 0.00 | 0.37 | 0.00 | 46 | 1016.4 |